Time,TemperatureF,DewpointF,PressureIn,WindDirection,WindDirectionDegrees,WindSpeedMPH,WindSpeedGustMPH,Humidity,HourlyPrecipIn,Conditions,Clouds,dailyrainin,SolarRadiationWatts/m^2,SoftwareType,DateUTC
2013-12-20 00:01:00,32.9,29.5,30.10,SW,230,0.0,0.0,87,0.00,,,0.00,0,WeatherCatV1.20B785,2013-12-20 05:01:00,
2013-12-20 00:02:00,32.9,29.7,30.10,SW,230,0.0,0.0,88,0.00,,,0.00,0,WeatherCatV1.20B785,2013-12-20 05:02:00,
2013-12-20 00:06:00,32.8,29.6,30.09,SW,230,0.0,0.0,88,0.00,,,0.00,0,WeatherCatV1.20B785,2013-12-20 05:06:00,
2013-12-20 00:07:00,32.8,29.6,30.09,SW,230,0.0,0.0,88,0.00,,,0.00,0,WeatherCatV1.20B785,2013-12-20 05:07:00,
2013-12-20 00:11:00,32.8,29.6,30.09,SW,230,0.0,0.0,88,0.00,,,0.00,0,WeatherCatV1.20B785,2013-12-20 05:11:00,
2013-12-20 00:12:00,32.8,29.4,30.09,SW,230,0.0,0.0,87,0.00,,,0.00,0,WeatherCatV1.20B785,2013-12-20 05:12:00,
2013-12-20 00:13:00,32.8,29.4,30.09,SW,230,1.0,1.0,87,0.00,,,0.00,0,WeatherCatV1.20B785,2013-12-20 05:13:00,
2013-12-20 00:16:00,32.7,29.3,30.09,SW,230,1.0,1.0,87,0.00,,,0.00,0,WeatherCatV1.20B785,2013-12-20 05:16:00,
2013-12-20 00:17:00,32.8,29.4,30.09,SW,230,1.0,2.0,87,0.00,,,0.00,0,WeatherCatV1.20B785,2013-12-20 05:17:00,
2013-12-20 00:18:00,32.8,29.4,30.09,SW,230,1.0,2.0,87,0.00,,,0.00,0,WeatherCatV1.20B785,2013-12-20 05:18:00,
2013-12-20 00:19:00,32.7,29.3,30.09,SW,230,0.0,1.0,87,0.00,,,0.00,0,WeatherCatV1.20B785,2013-12-20 05:19:00,
2013-12-20 00:21:00,32.7,29.5,30.09,SW,230,0.0,0.0,88,0.00,,,0.00,0,WeatherCatV1.20B785,2013-12-20 05:21:00,
2013-12-20 00:23:00,32.7,29.3,30.09,SW,230,0.0,0.0,87,0.00,,,0.00,0,WeatherCatV1.20B785,2013-12-20 05:23:00,
2013-12-20 00:25:00,32.7,29.3,30.09,SW,230,0.0,0.0,87,0.00,,,0.00,0,WeatherCatV1.20B785,2013-12-20 05:25:00,
2013-12-20 00:26:00,32.7,29.3,30.09,SW,230,0.0,0.0,87,0.00,,,0.00,0,WeatherCatV1.20B785,2013-12-20 05:26:00,
2013-12-20 00:28:00,32.8,29.4,30.09,SW,230,0.0,0.0,87,0.00,,,0.00,0,WeatherCatV1.20B785,2013-12-20 05:28:00,
2013-12-20 00:29:00,32.8,29.4,30.09,SW,230,0.0,0.0,87,0.00,,,0.00,0,WeatherCatV1.20B785,2013-12-20 05:29:00,
2013-12-20 00:30:00,32.8,29.4,30.09,SW,230,0.0,0.0,87,0.00,,,0.00,0,WeatherCatV1.20B785,2013-12-20 05:30:00,
2013-12-20 00:31:00,32.8,29.4,30.09,SW,230,0.0,0.0,87,0.00,,,0.00,0,WeatherCatV1.20B785,2013-12-20 05:31:00,
2013-12-20 00:33:00,32.9,29.5,30.09,SW,230,0.0,0.0,87,0.00,,,0.00,0,WeatherCatV1.20B785,2013-12-20 05:33:00,
2013-12-20 00:34:00,32.9,29.7,30.09,SW,230,0.0,0.0,88,0.00,,,0.00,0,WeatherCatV1.20B785,2013-12-20 05:34:00,
2013-12-20 00:35:00,32.9,29.7,30.09,SW,230,0.0,0.0,88,0.00,,,0.00,0,WeatherCatV1.20B785,2013-12-20 05:35:00,
2013-12-20 00:37:00,32.9,29.7,30.09,SW,230,0.0,0.0,88,0.00,,,0.00,0,WeatherCatV1.20B785,2013-12-20 05:37:00,
2013-12-20 00:38:00,32.9,29.7,30.09,SW,230,0.0,0.0,88,0.00,,,0.00,0,WeatherCatV1.20B785,2013-12-20 05:38:00,
2013-12-20 00:39:00,32.8,29.6,30.09,SW,230,0.0,0.0,88,0.00,,,0.00,0,WeatherCatV1.20B785,2013-12-20 05:39:00,
2013-12-20 00:40:00,32.8,29.6,30.09,SW,230,0.0,0.0,88,0.00,,,0.00,0,WeatherCatV1.20B785,2013-12-20 05:40:00,
2013-12-20 00:42:00,32.8,29.6,30.09,SW,230,0.0,0.0,88,0.00,,,0.00,0,WeatherCatV1.20B785,2013-12-20 05:42:00,
2013-12-20 00:44:00,32.8,29.6,30.09,SW,230,0.0,0.0,88,0.00,,,0.00,0,WeatherCatV1.20B785,2013-12-20 05:44:00,
2013-12-20 00:46:00,32.7,29.5,30.09,SW,230,0.0,0.0,88,0.00,,,0.00,0,WeatherCatV1.20B785,2013-12-20 05:46:00,
2013-12-20 00:47:00,32.7,29.5,30.09,SW,230,0.0,0.0,88,0.00,,,0.00,0,WeatherCatV1.20B785,2013-12-20 05:47:00,
2013-12-20 00:49:00,32.6,29.5,30.09,SW,230,0.0,0.0,88,0.00,,,0.00,0,WeatherCatV1.20B785,2013-12-20 05:49:00,
2013-12-20 00:50:00,32.6,29.5,30.09,SW,230,0.0,0.0,88,0.00,,,0.00,0,WeatherCatV1.20B785,2013-12-20 05:50:00,
2013-12-20 00:51:00,32.6,29.5,30.09,SW,230,0.0,0.0,88,0.00,,,0.00,0,WeatherCatV1.20B785,2013-12-20 05:51:00,
2013-12-20 00:52:00,32.6,29.5,30.09,SW,230,0.0,0.0,88,0.00,,,0.00,0,WeatherCatV1.20B785,2013-12-20 05:52:00,
2013-12-20 00:55:00,32.5,29.4,30.09,SW,230,0.0,2.0,88,0.00,,,0.00,0,WeatherCatV1.20B785,2013-12-20 05:55:00,
2013-12-20 00:56:00,32.5,29.4,30.09,SW,230,0.0,2.0,88,0.00,,,0.00,0,WeatherCatV1.20B785,2013-12-20 05:56:00,
2013-12-20 00:57:00,32.5,29.4,30.09,SW,230,0.0,2.0,88,0.00,,,0.00,0,WeatherCatV1.20B785,2013-12-20 05:57:00,
2013-12-20 00:58:00,32.5,29.4,30.09,SW,230,0.0,0.0,88,0.00,,,0.00,0,WeatherCatV1.20B785,2013-12-20 05:58:00,
2013-12-20 01:01:00,32.4,29.2,30.09,SW,230,0.0,0.0,88,0.00,,,0.00,0,WeatherCatV1.20B785,2013-12-20 06:01:00,
2013-12-20 01:02:00,32.4,29.2,30.09,SW,230,0.0,0.0,88,0.00,,,0.00,0,WeatherCatV1.20B785,2013-12-20 06:02:00,
2013-12-20 01:03:00,32.4,29.2,30.09,SW,230,1.0,1.0,88,0.00,,,0.00,0,WeatherCatV1.20B785,2013-12-20 06:03:00,
2013-12-20 01:04:00,32.3,29.1,30.08,SW,230,2.0,2.0,88,0.00,,,0.00,0,WeatherCatV1.20B785,2013-12-20 06:04:00,
2013-12-20 01:06:00,32.3,29.1,30.08,SW,230,2.0,2.0,88,0.00,,,0.00,0,WeatherCatV1.20B785,2013-12-20 06:06:00,
2013-12-20 01:07:00,32.3,29.1,30.08,SW,230,1.0,2.0,88,0.00,,,0.00,0,WeatherCatV1.20B785,2013-12-20 06:07:00,
2013-12-20 01:09:00,32.2,29.0,30.08,SW,230,1.0,2.0,88,0.00,,,0.00,0,WeatherCatV1.20B785,2013-12-20 06:09:00,
2013-12-20 01:11:00,32.1,29.0,30.08,SW,230,2.0,2.0,88,0.00,,,0.00,0,WeatherCatV1.20B785,2013-12-20 06:11:00,
2013-12-20 01:12:00,32.1,29.0,30.08,SW,230,1.0,2.0,88,0.00,,,0.00,0,WeatherCatV1.20B785,2013-12-20 06:12:00,
2013-12-20 01:15:00,32.1,29.2,30.08,SW,230,1.0,2.0,89,0.00,,,0.00,0,WeatherCatV1.20B785,2013-12-20 06:15:00,
2013-12-20 01:17:00,32.1,29.2,30.08,SW,230,1.0,1.0,89,0.00,,,0.00,0,WeatherCatV1.20B785,2013-12-20 06:17:00,
2013-12-20 01:18:00,32.1,29.2,30.08,SW,230,2.0,2.0,89,0.00,,,0.00,0,WeatherCatV1.20B785,2013-12-20 06:18:00,
2013-12-20 01:20:00,32.2,29.3,30.08,SW,231,0.0,2.0,89,0.00,,,0.00,0,WeatherCatV1.20B785,2013-12-20 06:20:00,
2013-12-20 01:22:00,32.3,29.4,30.08,SW,231,1.0,2.0,89,0.00,,,0.00,0,WeatherCatV1.20B785,2013-12-20 06:22:00,
2013-12-20 01:23:00,32.3,29.4,30.08,SW,231,1.0,2.0,89,0.00,,,0.00,0,WeatherCatV1.20B785,2013-12-20 06:23:00,
2013-12-20 01:25:00,32.5,29.6,30.08,SW,231,1.0,1.0,89,0.00,,,0.00,0,WeatherCatV1.20B785,2013-12-20 06:25:00,
2013-12-20 01:27:00,32.6,29.7,30.08,SW,231,0.0,0.0,89,0.00,,,0.00,0,WeatherCatV1.20B785,2013-12-20 06:27:00,
2013-12-20 01:28:00,32.6,29.7,30.08,SW,231,0.0,0.0,89,0.00,,,0.00,0,WeatherCatV1.20B785,2013-12-20 06:28:00,
2013-12-20 01:29:00,32.7,29.8,30.08,SW,231,0.0,0.0,89,0.00,,,0.00,0,WeatherCatV1.20B785,2013-12-20 06:29:00,
2013-12-20 01:30:00,32.7,29.8,30.08,SW,231,0.0,0.0,89,0.00,,,0.00,0,WeatherCatV1.20B785,2013-12-20 06:30:00,
2013-12-20 01:33:00,32.8,29.9,30.08,SW,231,0.0,0.0,89,0.00,,,0.00,0,WeatherCatV1.20B785,2013-12-20 06:33:00,
2013-12-20 01:34:00,32.8,29.9,30.08,SW,231,0.0,0.0,89,0.00,,,0.00,0,WeatherCatV1.20B785,2013-12-20 06:34:00,
2013-12-20 01:35:00,32.9,30.0,30.08,SW,231,0.0,0.0,89,0.00,,,0.00,0,WeatherCatV1.20B785,2013-12-20 06:35:00,
2013-12-20 01:38:00,32.9,30.0,30.08,SW,231,0.0,0.0,89,0.00,,,0.00,0,WeatherCatV1.20B785,2013-12-20 06:38:00,
2013-12-20 01:39:00,33.0,30.1,30.08,SW,231,0.0,0.0,89,0.00,,,0.00,0,WeatherCatV1.20B785,2013-12-20 06:39:00,
2013-12-20 01:41:00,33.1,30.2,30.08,SW,231,0.0,0.0,89,0.00,,,0.00,0,WeatherCatV1.20B785,2013-12-20 06:41:00,
2013-12-20 01:43:00,33.2,30.0,30.08,SW,231,0.0,0.0,88,0.00,,,0.00,0,WeatherCatV1.20B785,2013-12-20 06:43:00,
2013-12-20 01:44:00,33.2,30.0,30.07,SW,231,0.0,0.0,88,0.00,,,0.00,0,WeatherCatV1.20B785,2013-12-20 06:44:00,
2013-12-20 01:45:00,33.3,30.1,30.08,SW,231,0.0,0.0,88,0.00,,,0.00,0,WeatherCatV1.20B785,2013-12-20 06:45:00,
2013-12-20 01:47:00,33.4,30.2,30.08,SW,231,0.0,0.0,88,0.00,,,0.00,0,WeatherCatV1.20B785,2013-12-20 06:47:00,
2013-12-20 01:48:00,33.4,30.2,30.08,SW,231,0.0,0.0,88,0.00,,,0.00,0,WeatherCatV1.20B785,2013-12-20 06:48:00,
2013-12-20 01:49:00,33.4,30.2,30.08,SW,231,0.0,0.0,88,0.00,,,0.00,0,WeatherCatV1.20B785,2013-12-20 06:49:00,
2013-12-20 01:50:00,33.5,30.3,30.08,SW,231,0.0,0.0,88,0.00,,,0.00,0,WeatherCatV1.20B785,2013-12-20 06:50:00,
2013-12-20 01:52:00,33.5,30.3,30.08,SW,231,0.0,0.0,88,0.00,,,0.00,0,WeatherCatV1.20B785,2013-12-20 06:52:00,
2013-12-20 01:53:00,33.5,30.3,30.08,SW,231,0.0,0.0,88,0.00,,,0.00,0,WeatherCatV1.20B785,2013-12-20 06:53:00,
2013-12-20 01:54:00,33.4,30.2,30.08,SW,231,0.0,0.0,88,0.00,,,0.00,0,WeatherCatV1.20B785,2013-12-20 06:54:00,
2013-12-20 01:55:00,33.4,30.2,30.08,SW,231,0.0,0.0,88,0.00,,,0.00,0,WeatherCatV1.20B785,2013-12-20 06:55:00,
2013-12-20 01:57:00,33.3,30.1,30.08,SW,231,0.0,0.0,88,0.00,,,0.00,0,WeatherCatV1.20B785,2013-12-20 06:57:00,
2013-12-20 01:58:00,33.3,30.1,30.08,SW,231,0.0,0.0,88,0.00,,,0.00,0,WeatherCatV1.20B785,2013-12-20 06:58:00,
2013-12-20 01:59:00,33.3,30.1,30.08,SW,231,0.0,0.0,88,0.00,,,0.00,0,WeatherCatV1.20B785,2013-12-20 06:59:00,
2013-12-20 02:00:00,33.3,30.1,30.08,SW,231,0.0,0.0,88,0.00,,,0.00,0,WeatherCatV1.20B785,2013-12-20 07:00:00,
2013-12-20 02:01:00,33.2,30.0,30.08,SW,231,0.0,0.0,88,0.00,,,0.00,0,WeatherCatV1.20B785,2013-12-20 07:01:00,
2013-12-20 02:04:00,33.2,30.0,30.08,SW,231,0.0,2.0,88,0.00,,,0.00,0,WeatherCatV1.20B785,2013-12-20 07:04:00,
2013-12-20 02:05:00,33.2,29.8,30.08,SW,231,0.0,0.0,87,0.00,,,0.00,0,WeatherCatV1.20B785,2013-12-20 07:05:00,
2013-12-20 02:06:00,33.1,29.9,30.08,SW,231,0.0,0.0,88,0.00,,,0.00,0,WeatherCatV1.20B785,2013-12-20 07:06:00,
2013-12-20 02:07:00,33.1,29.9,30.08,SW,231,0.0,0.0,88,0.00,,,0.00,0,WeatherCatV1.20B785,2013-12-20 07:07:00,
2013-12-20 02:09:00,33.1,29.9,30.08,SW,231,0.0,0.0,88,0.00,,,0.00,0,WeatherCatV1.20B785,2013-12-20 07:09:00,
2013-12-20 02:10:00,33.1,29.9,30.08,SW,231,0.0,0.0,88,0.00,,,0.00,0,WeatherCatV1.20B785,2013-12-20 07:10:00,
2013-12-20 02:11:00,33.0,29.8,30.08,SW,231,0.0,0.0,88,0.00,,,0.00,0,WeatherCatV1.20B785,2013-12-20 07:11:00,
2013-12-20 02:13:00,33.0,29.8,30.08,SW,231,0.0,0.0,88,0.00,,,0.00,0,WeatherCatV1.20B785,2013-12-20 07:13:00,
2013-12-20 02:14:00,33.0,29.8,30.08,SW,231,0.0,0.0,88,0.00,,,0.00,0,WeatherCatV1.20B785,2013-12-20 07:14:00,
2013-12-20 02:15:00,33.0,29.6,30.08,SW,231,0.0,0.0,87,0.00,,,0.00,0,WeatherCatV1.20B785,2013-12-20 07:15:00,
2013-12-20 02:17:00,32.9,29.5,30.08,SW,231,0.0,0.0,87,0.00,,,0.00,0,WeatherCatV1.20B785,2013-12-20 07:17:00,
2013-12-20 02:18:00,32.9,29.7,30.08,SW,231,0.0,0.0,88,0.00,,,0.00,0,WeatherCatV1.20B785,2013-12-20 07:18:00,
2013-12-20 02:20:00,32.9,29.7,30.08,SW,231,0.0,0.0,88,0.00,,,0.00,0,WeatherCatV1.20B785,2013-12-20 07:20:00,
2013-12-20 02:21:00,32.9,29.7,30.08,SW,231,0.0,0.0,88,0.00,,,0.00,0,WeatherCatV1.20B785,2013-12-20 07:21:00,
2013-12-20 02:22:00,32.9,29.7,30.08,SW,231,0.0,0.0,88,0.00,,,0.00,0,WeatherCatV1.20B785,2013-12-20 07:22:00,
2013-12-20 02:24:00,32.9,29.7,30.08,SW,231,0.0,1.0,88,0.00,,,0.00,0,WeatherCatV1.20B785,2013-12-20 07:24:00,
2013-12-20 02:25:00,32.9,29.7,30.08,SW,231,0.0,0.0,88,0.00,,,0.00,0,WeatherCatV1.20B785,2013-12-20 07:25:00,
2013-12-20 02:26:00,32.9,29.7,30.08,SW,231,2.0,2.0,88,0.00,,,0.00,0,WeatherCatV1.20B785,2013-12-20 07:26:00,
2013-12-20 02:27:00,32.9,29.7,30.08,SW,231,1.0,2.0,88,0.00,,,0.00,0,WeatherCatV1.20B785,2013-12-20 07:27:00,
2013-12-20 02:29:00,32.9,29.7,30.08,SW,231,2.0,2.0,88,0.00,,,0.00,0,WeatherCatV1.20B785,2013-12-20 07:29:00,
2013-12-20 02:30:00,32.9,30.0,30.08,West,277,3.0,3.0,89,0.00,,,0.00,0,WeatherCatV1.20B785,2013-12-20 07:30:00,
2013-12-20 02:31:00,32.9,30.0,30.08,West,277,2.0,3.0,89,0.00,,,0.00,0,WeatherCatV1.20B785,2013-12-20 07:31:00,
2013-12-20 02:32:00,32.9,30.0,30.08,West,277,1.0,2.0,89,0.00,,,0.00,0,WeatherCatV1.20B785,2013-12-20 07:32:00,
2013-12-20 02:34:00,33.0,30.1,30.08,West,277,1.0,2.0,89,0.00,,,0.00,0,WeatherCatV1.20B785,2013-12-20 07:34:00,
2013-12-20 02:35:00,33.0,30.1,30.08,West,277,0.0,2.0,89,0.00,,,0.00,0,WeatherCatV1.20B785,2013-12-20 07:35:00,
2013-12-20 02:36:00,33.0,30.1,30.08,West,277,0.0,0.0,89,0.00,,,0.00,0,WeatherCatV1.20B785,2013-12-20 07:36:00,
2013-12-20 02:38:00,33.1,30.2,30.08,West,277,1.0,1.0,89,0.00,,,0.00,0,WeatherCatV1.20B785,2013-12-20 07:38:00,
2013-12-20 02:39:00,33.1,30.2,30.08,West,277,0.0,0.0,89,0.00,,,0.00,0,WeatherCatV1.20B785,2013-12-20 07:39:00,
2013-12-20 02:41:00,33.1,30.2,30.09,West,277,0.0,0.0,89,0.00,,,0.00,0,WeatherCatV1.20B785,2013-12-20 07:41:00,
2013-12-20 02:42:00,33.1,30.2,30.09,West,277,1.0,2.0,89,0.00,,,0.00,0,WeatherCatV1.20B785,2013-12-20 07:42:00,
2013-12-20 02:43:00,33.1,30.2,30.09,West,277,0.0,2.0,89,0.00,,,0.00,0,WeatherCatV1.20B785,2013-12-20 07:43:00,
2013-12-20 02:44:00,33.1,30.2,30.09,West,277,0.0,1.0,89,0.00,,,0.00,0,WeatherCatV1.20B785,2013-12-20 07:44:00,
2013-12-20 02:45:00,33.1,30.2,30.09,West,277,0.0,0.0,89,0.00,,,0.00,0,WeatherCatV1.20B785,2013-12-20 07:45:00,
2013-12-20 02:46:00,33.0,30.1,30.09,West,277,0.0,0.0,89,0.00,,,0.00,0,WeatherCatV1.20B785,2013-12-20 07:46:00,
2013-12-20 02:47:00,33.1,30.2,30.09,West,277,0.0,1.0,89,0.00,,,0.00,0,WeatherCatV1.20B785,2013-12-20 07:47:00,
2013-12-20 02:49:00,33.1,29.9,30.09,West,277,0.0,0.0,88,0.00,,,0.00,0,WeatherCatV1.20B785,2013-12-20 07:49:00,
2013-12-20 02:50:00,33.1,29.9,30.09,West,277,0.0,0.0,88,0.00,,,0.00,0,WeatherCatV1.20B785,2013-12-20 07:50:00,
2013-12-20 02:51:00,33.1,29.9,30.09,West,277,0.0,0.0,88,0.00,,,0.00,0,WeatherCatV1.20B785,2013-12-20 07:51:00,
2013-12-20 02:53:00,33.1,29.9,30.09,West,277,0.0,0.0,88,0.00,,,0.00,0,WeatherCatV1.20B785,2013-12-20 07:53:00,
2013-12-20 02:54:00,33.1,29.9,30.09,West,277,0.0,0.0,88,0.00,,,0.00,0,WeatherCatV1.20B785,2013-12-20 07:54:00,
2013-12-20 02:55:00,33.1,29.9,30.09,West,277,0.0,0.0,88,0.00,,,0.00,0,WeatherCatV1.20B785,2013-12-20 07:55:00,
2013-12-20 02:56:00,33.1,29.9,30.09,West,277,0.0,0.0,88,0.00,,,0.00,0,WeatherCatV1.20B785,2013-12-20 07:56:00,
2013-12-20 02:58:00,33.1,29.9,30.09,West,277,0.0,0.0,88,0.00,,,0.00,0,WeatherCatV1.20B785,2013-12-20 07:58:00,
2013-12-20 02:59:00,33.2,30.0,30.09,West,277,0.0,0.0,88,0.00,,,0.00,0,WeatherCatV1.20B785,2013-12-20 07:59:00,
2013-12-20 03:00:00,33.2,30.0,30.09,West,277,0.0,0.0,88,0.00,,,0.00,0,WeatherCatV1.20B785,2013-12-20 08:00:00,
2013-12-20 03:01:00,33.2,30.0,30.09,West,277,0.0,0.0,88,0.00,,,0.00,0,WeatherCatV1.20B785,2013-12-20 08:01:00,
2013-12-20 03:02:00,33.2,30.0,30.09,West,277,0.0,0.0,88,0.00,,,0.00,0,WeatherCatV1.20B785,2013-12-20 08:02:00,
2013-12-20 03:03:00,33.3,30.1,30.09,West,277,0.0,0.0,88,0.00,,,0.00,0,WeatherCatV1.20B785,2013-12-20 08:03:00,
2013-12-20 03:05:00,33.3,30.1,30.09,West,277,0.0,0.0,88,0.00,,,0.00,0,WeatherCatV1.20B785,2013-12-20 08:05:00,
2013-12-20 03:06:00,33.3,30.1,30.09,West,277,0.0,0.0,88,0.00,,,0.00,0,WeatherCatV1.20B785,2013-12-20 08:06:00,
2013-12-20 03:07:00,33.3,30.1,30.09,West,277,0.0,0.0,88,0.00,,,0.00,0,WeatherCatV1.20B785,2013-12-20 08:07:00,
2013-12-20 03:08:00,33.3,30.1,30.09,West,277,0.0,0.0,88,0.00,,,0.00,0,WeatherCatV1.20B785,2013-12-20 08:08:00,
2013-12-20 03:10:00,33.3,30.1,30.09,West,277,0.0,0.0,88,0.00,,,0.00,0,WeatherCatV1.20B785,2013-12-20 08:10:00,
2013-12-20 03:12:00,33.3,30.1,30.09,West,277,0.0,0.0,88,0.00,,,0.00,0,WeatherCatV1.20B785,2013-12-20 08:12:00,
2013-12-20 03:13:00,33.2,30.0,30.09,West,277,0.0,1.0,88,0.00,,,0.00,0,WeatherCatV1.20B785,2013-12-20 08:13:00,
2013-12-20 03:16:00,33.2,30.0,30.09,West,277,0.0,0.0,88,0.00,,,0.00,0,WeatherCatV1.20B785,2013-12-20 08:16:00,
2013-12-20 03:17:00,33.1,29.9,30.09,West,277,0.0,0.0,88,0.00,,,0.00,0,WeatherCatV1.20B785,2013-12-20 08:17:00,
2013-12-20 03:18:00,33.1,29.9,30.09,West,277,0.0,0.0,88,0.00,,,0.00,0,WeatherCatV1.20B785,2013-12-20 08:18:00,
2013-12-20 03:19:00,33.1,29.9,30.09,West,277,0.0,0.0,88,0.00,,,0.00,0,WeatherCatV1.20B785,2013-12-20 08:19:00,
2013-12-20 03:21:00,33.0,29.8,30.09,West,277,0.0,0.0,88,0.00,,,0.00,0,WeatherCatV1.20B785,2013-12-20 08:21:00,
2013-12-20 03:22:00,33.0,29.8,30.09,West,277,0.0,0.0,88,0.00,,,0.00,0,WeatherCatV1.20B785,2013-12-20 08:22:00,
2013-12-20 03:25:00,33.0,29.8,30.09,West,277,0.0,0.0,88,0.00,,,0.00,0,WeatherCatV1.20B785,2013-12-20 08:25:00,
2013-12-20 03:26:00,33.0,29.8,30.09,West,277,0.0,0.0,88,0.00,,,0.00,0,WeatherCatV1.20B785,2013-12-20 08:26:00,
2013-12-20 03:27:00,33.0,29.8,30.09,West,277,0.0,0.0,88,0.00,,,0.00,0,WeatherCatV1.20B785,2013-12-20 08:27:00,
2013-12-20 03:28:00,32.9,29.7,30.09,West,277,0.0,0.0,88,0.00,,,0.00,0,WeatherCatV1.20B785,2013-12-20 08:28:00,
2013-12-20 03:30:00,32.9,29.7,30.09,West,277,0.0,0.0,88,0.00,,,0.00,0,WeatherCatV1.20B785,2013-12-20 08:30:00,
2013-12-20 03:31:00,32.9,29.7,30.09,West,277,0.0,0.0,88,0.00,,,0.00,0,WeatherCatV1.20B785,2013-12-20 08:31:00,
2013-12-20 03:33:00,32.9,29.7,30.09,West,277,0.0,0.0,88,0.00,,,0.00,0,WeatherCatV1.20B785,2013-12-20 08:33:00,
2013-12-20 03:34:00,32.8,29.6,30.09,West,277,0.0,0.0,88,0.00,,,0.00,0,WeatherCatV1.20B785,2013-12-20 08:34:00,
2013-12-20 03:36:00,32.8,29.6,30.09,West,277,0.0,0.0,88,0.00,,,0.00,0,WeatherCatV1.20B785,2013-12-20 08:36:00,
2013-12-20 03:38:00,32.8,29.6,30.09,West,277,0.0,0.0,88,0.00,,,0.00,0,WeatherCatV1.20B785,2013-12-20 08:38:00,
2013-12-20 03:39:00,32.7,29.5,30.09,West,277,0.0,0.0,88,0.00,,,0.00,0,WeatherCatV1.20B785,2013-12-20 08:39:00,
2013-12-20 03:41:00,32.7,29.5,30.09,West,277,0.0,0.0,88,0.00,,,0.00,0,WeatherCatV1.20B785,2013-12-20 08:41:00,
2013-12-20 03:43:00,32.7,29.5,30.09,West,277,0.0,0.0,88,0.00,,,0.00,0,WeatherCatV1.20B785,2013-12-20 08:43:00,
2013-12-20 03:44:00,32.7,29.5,30.09,West,277,0.0,0.0,88,0.00,,,0.00,0,WeatherCatV1.20B785,2013-12-20 08:44:00,
2013-12-20 03:46:00,32.6,29.7,30.09,West,277,0.0,0.0,89,0.00,,,0.00,0,WeatherCatV1.20B785,2013-12-20 08:46:00,
2013-12-20 03:47:00,32.7,29.8,30.09,West,277,0.0,1.0,89,0.00,,,0.00,0,WeatherCatV1.20B785,2013-12-20 08:47:00,
2013-12-20 03:48:00,32.7,29.8,30.09,West,277,0.0,1.0,89,0.00,,,0.00,0,WeatherCatV1.20B785,2013-12-20 08:48:00,
2013-12-20 03:49:00,32.7,29.8,30.09,West,277,0.0,0.0,89,0.00,,,0.00,0,WeatherCatV1.20B785,2013-12-20 08:49:00,
2013-12-20 03:52:00,32.9,29.7,30.09,West,277,0.0,0.0,88,0.00,,,0.00,0,WeatherCatV1.20B785,2013-12-20 08:52:00,
2013-12-20 03:53:00,32.9,29.7,30.09,West,277,0.0,0.0,88,0.00,,,0.00,0,WeatherCatV1.20B785,2013-12-20 08:53:00,
2013-12-20 03:54:00,32.9,29.7,30.09,West,277,0.0,0.0,88,0.00,,,0.00,0,WeatherCatV1.20B785,2013-12-20 08:54:00,
2013-12-20 03:57:00,33.0,29.8,30.09,West,277,0.0,0.0,88,0.00,,,0.00,0,WeatherCatV1.20B785,2013-12-20 08:57:00,
2013-12-20 03:58:00,33.0,29.8,30.09,West,277,0.0,0.0,88,0.00,,,0.00,0,WeatherCatV1.20B785,2013-12-20 08:58:00,
2013-12-20 03:59:00,33.0,29.8,30.09,West,277,0.0,1.0,88,0.00,,,0.00,0,WeatherCatV1.20B785,2013-12-20 08:59:00,
2013-12-20 04:00:00,33.0,29.8,30.09,West,277,0.0,1.0,88,0.00,,,0.00,0,WeatherCatV1.20B785,2013-12-20 09:00:00,
2013-12-20 04:03:00,33.0,29.8,30.09,West,277,0.0,2.0,88,0.00,,,0.00,0,WeatherCatV1.20B785,2013-12-20 09:03:00,
2013-12-20 04:04:00,32.9,29.7,30.09,West,277,0.0,0.0,88,0.00,,,0.00,0,WeatherCatV1.20B785,2013-12-20 09:04:00,
2013-12-20 04:05:00,32.9,29.5,30.09,West,277,0.0,0.0,87,0.00,,,0.00,0,WeatherCatV1.20B785,2013-12-20 09:05:00,
2013-12-20 04:06:00,32.9,29.7,30.09,West,277,0.0,0.0,88,0.00,,,0.00,0,WeatherCatV1.20B785,2013-12-20 09:06:00,
2013-12-20 04:08:00,32.8,29.6,30.09,West,277,0.0,0.0,88,0.00,,,0.00,0,WeatherCatV1.20B785,2013-12-20 09:08:00,
2013-12-20 04:09:00,32.7,29.5,30.09,West,277,0.0,0.0,88,0.00,,,0.00,0,WeatherCatV1.20B785,2013-12-20 09:09:00,
2013-12-20 04:10:00,32.7,29.5,30.09,West,277,0.0,0.0,88,0.00,,,0.00,0,WeatherCatV1.20B785,2013-12-20 09:10:00,
2013-12-20 04:11:00,32.7,29.5,30.08,West,277,1.0,1.0,88,0.00,,,0.00,0,WeatherCatV1.20B785,2013-12-20 09:11:00,
2013-12-20 04:13:00,32.6,29.5,30.09,West,277,0.0,1.0,88,0.00,,,0.00,0,WeatherCatV1.20B785,2013-12-20 09:13:00,
2013-12-20 04:14:00,32.6,29.5,30.09,West,277,0.0,0.0,88,0.00,,,0.00,0,WeatherCatV1.20B785,2013-12-20 09:14:00,
2013-12-20 04:15:00,32.5,29.4,30.09,West,277,0.0,0.0,88,0.00,,,0.00,0,WeatherCatV1.20B785,2013-12-20 09:15:00,
2013-12-20 04:16:00,32.5,29.4,30.09,West,277,0.0,0.0,88,0.00,,,0.00,0,WeatherCatV1.20B785,2013-12-20 09:16:00,
2013-12-20 04:19:00,32.4,29.2,30.09,West,277,0.0,0.0,88,0.00,,,0.00,0,WeatherCatV1.20B785,2013-12-20 09:19:00,
2013-12-20 04:20:00,32.4,29.2,30.09,West,277,0.0,0.0,88,0.00,,,0.00,0,WeatherCatV1.20B785,2013-12-20 09:20:00,
2013-12-20 04:21:00,32.3,29.1,30.09,West,277,0.0,0.0,88,0.00,,,0.00,0,WeatherCatV1.20B785,2013-12-20 09:21:00,
2013-12-20 04:24:00,32.2,29.0,30.08,West,277,0.0,0.0,88,0.00,,,0.00,0,WeatherCatV1.20B785,2013-12-20 09:24:00,
2013-12-20 04:25:00,32.2,29.0,30.09,West,277,0.0,0.0,88,0.00,,,0.00,0,WeatherCatV1.20B785,2013-12-20 09:25:00,
2013-12-20 04:26:00,32.2,29.0,30.09,West,277,0.0,0.0,88,0.00,,,0.00,0,WeatherCatV1.20B785,2013-12-20 09:26:00,
2013-12-20 04:27:00,32.2,29.0,30.08,West,277,0.0,0.0,88,0.00,,,0.00,0,WeatherCatV1.20B785,2013-12-20 09:27:00,
2013-12-20 04:29:00,32.1,29.2,30.08,West,277,0.0,0.0,89,0.00,,,0.00,0,WeatherCatV1.20B785,2013-12-20 09:29:00,
2013-12-20 04:30:00,32.1,29.2,30.08,West,277,0.0,0.0,89,0.00,,,0.00,0,WeatherCatV1.20B785,2013-12-20 09:30:00,
2013-12-20 04:31:00,32.1,29.2,30.08,West,277,0.0,0.0,89,0.00,,,0.00,0,WeatherCatV1.20B785,2013-12-20 09:31:00,
2013-12-20 04:32:00,32.0,29.1,30.08,West,277,0.0,0.0,89,0.00,,,0.00,0,WeatherCatV1.20B785,2013-12-20 09:32:00,
2013-12-20 04:34:00,32.0,29.1,30.08,West,277,0.0,0.0,89,0.00,,,0.00,0,WeatherCatV1.20B785,2013-12-20 09:34:00,
2013-12-20 04:35:00,32.0,29.1,30.08,West,277,0.0,0.0,89,0.00,,,0.00,0,WeatherCatV1.20B785,2013-12-20 09:35:00,
2013-12-20 04:36:00,32.0,29.1,30.08,West,277,0.0,0.0,89,0.00,,,0.00,0,WeatherCatV1.20B785,2013-12-20 09:36:00,
2013-12-20 04:37:00,31.9,29.0,30.08,West,277,0.0,0.0,89,0.00,,,0.00,0,WeatherCatV1.20B785,2013-12-20 09:37:00,
2013-12-20 04:40:00,31.9,29.0,30.08,West,277,0.0,0.0,89,0.00,,,0.00,0,WeatherCatV1.20B785,2013-12-20 09:40:00,
2013-12-20 04:41:00,31.9,29.0,30.08,West,277,0.0,0.0,89,0.00,,,0.00,0,WeatherCatV1.20B785,2013-12-20 09:41:00,
2013-12-20 04:42:00,31.9,29.0,30.08,West,277,0.0,1.0,89,0.00,,,0.00,0,WeatherCatV1.20B785,2013-12-20 09:42:00,
2013-12-20 04:43:00,31.9,29.0,30.08,West,277,0.0,0.0,89,0.00,,,0.00,0,WeatherCatV1.20B785,2013-12-20 09:43:00,
2013-12-20 04:45:00,31.9,29.0,30.08,West,277,0.0,0.0,89,0.00,,,0.00,0,WeatherCatV1.20B785,2013-12-20 09:45:00,
2013-12-20 04:46:00,31.9,29.0,30.08,West,277,0.0,0.0,89,0.00,,,0.00,0,WeatherCatV1.20B785,2013-12-20 09:46:00,
2013-12-20 04:47:00,31.9,29.0,30.08,West,277,0.0,0.0,89,0.00,,,0.00,0,WeatherCatV1.20B785,2013-12-20 09:47:00,
2013-12-20 04:48:00,31.9,29.0,30.08,West,277,0.0,0.0,89,0.00,,,0.00,0,WeatherCatV1.20B785,2013-12-20 09:48:00,
2013-12-20 04:49:00,31.9,29.0,30.08,West,277,0.0,0.0,89,0.00,,,0.00,0,WeatherCatV1.20B785,2013-12-20 09:49:00,
2013-12-20 04:51:00,31.8,28.9,30.08,West,277,0.0,0.0,89,0.00,,,0.00,0,WeatherCatV1.20B785,2013-12-20 09:51:00,
2013-12-20 04:52:00,31.8,28.9,30.08,West,277,0.0,0.0,89,0.00,,,0.00,0,WeatherCatV1.20B785,2013-12-20 09:52:00,
2013-12-20 04:53:00,31.7,28.8,30.08,West,277,0.0,0.0,89,0.00,,,0.00,0,WeatherCatV1.20B785,2013-12-20 09:53:00,
2013-12-20 04:54:00,31.7,28.8,30.08,WNW,289,3.0,4.0,89,0.00,,,0.00,0,WeatherCatV1.20B785,2013-12-20 09:54:00,
2013-12-20 04:56:00,31.6,28.7,30.08,WNW,289,0.0,1.0,89,0.00,,,0.00,0,WeatherCatV1.20B785,2013-12-20 09:56:00,
2013-12-20 04:57:00,31.6,28.7,30.08,WNW,289,0.0,0.0,89,0.00,,,0.00,0,WeatherCatV1.20B785,2013-12-20 09:57:00,
2013-12-20 04:58:00,31.6,28.7,30.08,WNW,289,0.0,0.0,89,0.00,,,0.00,0,WeatherCatV1.20B785,2013-12-20 09:58:00,
2013-12-20 05:00:00,31.5,28.6,30.08,WNW,289,0.0,0.0,89,0.00,,,0.00,0,WeatherCatV1.20B785,2013-12-20 10:00:00,
2013-12-20 05:02:00,31.5,28.6,30.09,WNW,289,0.0,0.0,89,0.00,,,0.00,0,WeatherCatV1.20B785,2013-12-20 10:02:00,
2013-12-20 05:03:00,31.5,28.6,30.09,WNW,289,0.0,0.0,89,0.00,,,0.00,0,WeatherCatV1.20B785,2013-12-20 10:03:00,
2013-12-20 05:06:00,31.4,28.5,30.09,WNW,289,0.0,0.0,89,0.00,,,0.00,0,WeatherCatV1.20B785,2013-12-20 10:06:00,
2013-12-20 05:07:00,31.4,28.8,30.09,WNW,289,1.0,1.0,90,0.00,,,0.00,0,WeatherCatV1.20B785,2013-12-20 10:07:00,
2013-12-20 05:08:00,31.4,28.8,30.09,WNW,289,0.0,1.0,90,0.00,,,0.00,0,WeatherCatV1.20B785,2013-12-20 10:08:00,
2013-12-20 05:09:00,31.4,28.8,30.09,WNW,289,0.0,1.0,90,0.00,,,0.00,0,WeatherCatV1.20B785,2013-12-20 10:09:00,
2013-12-20 05:11:00,31.4,28.8,30.09,WNW,289,0.0,0.0,90,0.00,,,0.00,0,WeatherCatV1.20B785,2013-12-20 10:11:00,
2013-12-20 05:12:00,31.3,28.7,30.09,WNW,289,0.0,0.0,90,0.00,,,0.00,0,WeatherCatV1.20B785,2013-12-20 10:12:00,
2013-12-20 05:13:00,31.4,28.8,30.09,WNW,289,0.0,0.0,90,0.00,,,0.00,0,WeatherCatV1.20B785,2013-12-20 10:13:00,
2013-12-20 05:15:00,31.4,28.8,30.09,WNW,289,0.0,0.0,90,0.00,,,0.00,0,WeatherCatV1.20B785,2013-12-20 10:15:00,
2013-12-20 05:17:00,31.4,28.8,30.09,WNW,289,0.0,0.0,90,0.00,,,0.00,0,WeatherCatV1.20B785,2013-12-20 10:17:00,
2013-12-20 05:18:00,31.4,28.5,30.09,WNW,289,0.0,0.0,89,0.00,,,0.00,0,WeatherCatV1.20B785,2013-12-20 10:18:00,
2013-12-20 05:20:00,31.3,28.7,30.09,WNW,289,0.0,0.0,90,0.00,,,0.00,0,WeatherCatV1.20B785,2013-12-20 10:20:00,
2013-12-20 05:22:00,31.3,28.4,30.09,WNW,289,0.0,0.0,89,0.00,,,0.00,0,WeatherCatV1.20B785,2013-12-20 10:22:00,
2013-12-20 05:23:00,31.2,28.3,30.09,WNW,289,0.0,0.0,89,0.00,,,0.00,0,WeatherCatV1.20B785,2013-12-20 10:23:00,
2013-12-20 05:24:00,31.2,28.6,30.09,WNW,289,0.0,0.0,90,0.00,,,0.00,0,WeatherCatV1.20B785,2013-12-20 10:24:00,
2013-12-20 05:25:00,31.2,28.3,30.09,WNW,289,0.0,0.0,89,0.00,,,0.00,0,WeatherCatV1.20B785,2013-12-20 10:25:00,
2013-12-20 05:27:00,31.1,28.2,30.08,WNW,289,0.0,0.0,89,0.00,,,0.00,0,WeatherCatV1.20B785,2013-12-20 10:27:00,
2013-12-20 05:28:00,31.1,28.2,30.09,WNW,289,0.0,0.0,89,0.00,,,0.00,0,WeatherCatV1.20B785,2013-12-20 10:28:00,
2013-12-20 05:29:00,31.1,28.2,30.09,WNW,289,0.0,0.0,89,0.00,,,0.00,0,WeatherCatV1.20B785,2013-12-20 10:29:00,
2013-12-20 05:31:00,31.0,28.4,30.08,WNW,289,0.0,0.0,90,0.00,,,0.00,0,WeatherCatV1.20B785,2013-12-20 10:31:00,
2013-12-20 05:33:00,30.9,28.3,30.08,WNW,289,0.0,0.0,90,0.00,,,0.00,0,WeatherCatV1.20B785,2013-12-20 10:33:00,
2013-12-20 05:34:00,30.9,28.3,30.08,WNW,289,0.0,0.0,90,0.00,,,0.00,0,WeatherCatV1.20B785,2013-12-20 10:34:00,
2013-12-20 05:37:00,30.8,28.2,30.08,WNW,289,0.0,0.0,90,0.00,,,0.00,0,WeatherCatV1.20B785,2013-12-20 10:37:00,
2013-12-20 05:39:00,30.8,28.2,30.09,WNW,289,0.0,1.0,90,0.00,,,0.00,0,WeatherCatV1.20B785,2013-12-20 10:39:00,
2013-12-20 05:40:00,30.7,28.1,30.09,WNW,289,0.0,1.0,90,0.00,,,0.00,0,WeatherCatV1.20B785,2013-12-20 10:40:00,
2013-12-20 05:42:00,30.7,28.1,30.08,WNW,289,0.0,0.0,90,0.00,,,0.00,0,WeatherCatV1.20B785,2013-12-20 10:42:00,
2013-12-20 05:44:00,30.6,28.0,30.08,WNW,289,0.0,0.0,90,0.00,,,0.00,0,WeatherCatV1.20B785,2013-12-20 10:44:00,
2013-12-20 05:45:00,30.6,28.0,30.08,WNW,289,0.0,0.0,90,0.00,,,0.00,0,WeatherCatV1.20B785,2013-12-20 10:45:00,
2013-12-20 05:46:00,30.6,28.0,30.08,WNW,289,0.0,0.0,90,0.00,,,0.00,0,WeatherCatV1.20B785,2013-12-20 10:46:00,
2013-12-20 05:48:00,30.6,28.0,30.09,WNW,289,0.0,0.0,90,0.00,,,0.00,0,WeatherCatV1.20B785,2013-12-20 10:48:00,
2013-12-20 05:49:00,30.6,28.0,30.09,WNW,289,0.0,0.0,90,0.00,,,0.00,0,WeatherCatV1.20B785,2013-12-20 10:49:00,
2013-12-20 05:50:00,30.6,28.0,30.09,WNW,289,0.0,0.0,90,0.00,,,0.00,0,WeatherCatV1.20B785,2013-12-20 10:50:00,
2013-12-20 05:52:00,30.6,28.0,30.09,WNW,289,0.0,0.0,90,0.00,,,0.00,0,WeatherCatV1.20B785,2013-12-20 10:52:00,
2013-12-20 05:53:00,30.6,28.0,30.09,WNW,289,0.0,0.0,90,0.00,,,0.00,0,WeatherCatV1.20B785,2013-12-20 10:53:00,
2013-12-20 05:55:00,30.6,28.0,30.09,WNW,289,0.0,0.0,90,0.00,,,0.00,0,WeatherCatV1.20B785,2013-12-20 10:55:00,
2013-12-20 05:56:00,30.6,28.0,30.09,WNW,289,0.0,0.0,90,0.00,,,0.00,0,WeatherCatV1.20B785,2013-12-20 10:56:00,
2013-12-20 05:58:00,30.6,28.0,30.09,WNW,289,0.0,0.0,90,0.00,,,0.00,0,WeatherCatV1.20B785,2013-12-20 10:58:00,
2013-12-20 06:00:00,30.7,28.1,30.08,WNW,289,0.0,0.0,90,0.00,,,0.00,0,WeatherCatV1.20B785,2013-12-20 11:00:00,
2013-12-20 06:01:00,30.8,28.2,30.09,WNW,289,0.0,0.0,90,0.00,,,0.00,0,WeatherCatV1.20B785,2013-12-20 11:01:00,
2013-12-20 06:03:00,30.9,28.3,30.08,WNW,289,0.0,0.0,90,0.00,,,0.00,0,WeatherCatV1.20B785,2013-12-20 11:03:00,
2013-12-20 06:04:00,30.9,28.3,30.08,WNW,289,0.0,0.0,90,0.00,,,0.00,0,WeatherCatV1.20B785,2013-12-20 11:04:00,
2013-12-20 06:05:00,31.0,28.4,30.08,WNW,289,0.0,0.0,90,0.00,,,0.00,0,WeatherCatV1.20B785,2013-12-20 11:05:00,
2013-12-20 06:07:00,31.0,28.4,30.08,WNW,289,0.0,0.0,90,0.00,,,0.00,0,WeatherCatV1.20B785,2013-12-20 11:07:00,
2013-12-20 06:09:00,31.1,28.5,30.08,WNW,289,0.0,0.0,90,0.00,,,0.00,0,WeatherCatV1.20B785,2013-12-20 11:09:00,
2013-12-20 06:10:00,31.1,28.5,30.08,WNW,289,0.0,0.0,90,0.00,,,0.00,0,WeatherCatV1.20B785,2013-12-20 11:10:00,
2013-12-20 06:11:00,31.2,28.6,30.08,WNW,289,0.0,0.0,90,0.00,,,0.00,0,WeatherCatV1.20B785,2013-12-20 11:11:00,
2013-12-20 06:13:00,31.2,28.6,30.08,WNW,289,0.0,1.0,90,0.00,,,0.00,0,WeatherCatV1.20B785,2013-12-20 11:13:00,
2013-12-20 06:14:00,31.2,28.6,30.08,WNW,289,0.0,0.0,90,0.00,,,0.00,0,WeatherCatV1.20B785,2013-12-20 11:14:00,
2013-12-20 06:15:00,31.3,28.7,30.08,WNW,289,0.0,2.0,90,0.00,,,0.00,0,WeatherCatV1.20B785,2013-12-20 11:15:00,
2013-12-20 06:16:00,31.3,28.7,30.08,WNW,289,0.0,2.0,90,0.00,,,0.00,0,WeatherCatV1.20B785,2013-12-20 11:16:00,
2013-12-20 06:18:00,31.3,28.7,30.08,WNW,289,1.0,2.0,90,0.00,,,0.00,0,WeatherCatV1.20B785,2013-12-20 11:18:00,
2013-12-20 06:19:00,31.3,28.7,30.08,WNW,289,0.0,2.0,90,0.00,,,0.00,0,WeatherCatV1.20B785,2013-12-20 11:19:00,
2013-12-20 06:21:00,31.4,28.8,30.08,WNW,289,0.0,2.0,90,0.00,,,0.00,0,WeatherCatV1.20B785,2013-12-20 11:21:00,
2013-12-20 06:22:00,31.4,28.8,30.08,WNW,289,0.0,1.0,90,0.00,,,0.00,0,WeatherCatV1.20B785,2013-12-20 11:22:00,
2013-12-20 06:24:00,31.5,28.9,30.08,WNW,289,0.0,0.0,90,0.00,,,0.00,0,WeatherCatV1.20B785,2013-12-20 11:24:00,
2013-12-20 06:25:00,31.5,28.9,30.08,WNW,289,0.0,0.0,90,0.00,,,0.00,0,WeatherCatV1.20B785,2013-12-20 11:25:00,
2013-12-20 06:26:00,31.5,28.9,30.08,WNW,289,0.0,0.0,90,0.00,,,0.00,0,WeatherCatV1.20B785,2013-12-20 11:26:00,
2013-12-20 06:27:00,31.6,29.0,30.08,WNW,289,0.0,0.0,90,0.00,,,0.00,0,WeatherCatV1.20B785,2013-12-20 11:27:00,
2013-12-20 06:30:00,31.7,29.1,30.08,WNW,289,0.0,0.0,90,0.00,,,0.00,0,WeatherCatV1.20B785,2013-12-20 11:30:00,
2013-12-20 06:31:00,31.7,29.1,30.08,WNW,289,0.0,0.0,90,0.00,,,0.00,0,WeatherCatV1.20B785,2013-12-20 11:31:00,
2013-12-20 06:32:00,31.7,29.1,30.08,WNW,289,0.0,0.0,90,0.00,,,0.00,0,WeatherCatV1.20B785,2013-12-20 11:32:00,
2013-12-20 06:36:00,31.9,29.3,30.08,WNW,289,0.0,0.0,90,0.00,,,0.00,0,WeatherCatV1.20B785,2013-12-20 11:36:00,
2013-12-20 06:37:00,31.9,29.3,30.08,WNW,289,0.0,0.0,90,0.00,,,0.00,0,WeatherCatV1.20B785,2013-12-20 11:37:00,
2013-12-20 06:38:00,31.9,29.3,30.08,WNW,289,0.0,0.0,90,0.00,,,0.00,0,WeatherCatV1.20B785,2013-12-20 11:38:00,
2013-12-20 06:42:00,32.1,29.5,30.08,WNW,289,0.0,0.0,90,0.00,,,0.00,0,WeatherCatV1.20B785,2013-12-20 11:42:00,
2013-12-20 06:43:00,32.2,29.6,30.08,WNW,289,0.0,1.0,90,0.00,,,0.00,0,WeatherCatV1.20B785,2013-12-20 11:43:00,
2013-12-20 06:47:00,32.3,29.4,30.08,WNW,289,1.0,1.0,89,0.00,,,0.00,0,WeatherCatV1.20B785,2013-12-20 11:47:00,
2013-12-20 06:48:00,32.3,29.4,30.08,WNW,289,1.0,1.0,89,0.00,,,0.00,0,WeatherCatV1.20B785,2013-12-20 11:48:00,
2013-12-20 06:49:00,32.3,29.4,30.08,WNW,289,0.0,1.0,89,0.00,,,0.00,0,WeatherCatV1.20B785,2013-12-20 11:49:00,
2013-12-20 06:52:00,32.2,29.3,30.08,WNW,289,0.0,0.0,89,0.00,,,0.00,0,WeatherCatV1.20B785,2013-12-20 11:52:00,
2013-12-20 06:53:00,32.1,29.2,30.08,WNW,289,0.0,0.0,89,0.00,,,0.00,0,WeatherCatV1.20B785,2013-12-20 11:53:00,
2013-12-20 06:54:00,32.1,29.2,30.08,WNW,289,0.0,0.0,89,0.00,,,0.00,0,WeatherCatV1.20B785,2013-12-20 11:54:00,
2013-12-20 06:57:00,32.0,29.1,30.08,WNW,289,0.0,0.0,89,0.00,,,0.00,0,WeatherCatV1.20B785,2013-12-20 11:57:00,
2013-12-20 06:58:00,32.0,29.1,30.08,WNW,289,0.0,0.0,89,0.00,,,0.00,0,WeatherCatV1.20B785,2013-12-20 11:58:00,
2013-12-20 07:00:00,31.9,29.0,30.08,WNW,289,0.0,0.0,89,0.00,,,0.00,0,WeatherCatV1.20B785,2013-12-20 12:00:00,
2013-12-20 07:03:00,31.8,28.9,30.08,WNW,289,0.0,1.0,89,0.00,,,0.00,0,WeatherCatV1.20B785,2013-12-20 12:03:00,
2013-12-20 07:04:00,31.8,28.9,30.08,WNW,289,1.0,1.0,89,0.00,,,0.00,0,WeatherCatV1.20B785,2013-12-20 12:04:00,
2013-12-20 07:06:00,31.7,28.8,30.08,WNW,289,2.0,2.0,89,0.00,,,0.00,0,WeatherCatV1.20B785,2013-12-20 12:06:00,
2013-12-20 07:08:00,31.6,28.7,30.08,WNW,289,2.0,2.0,89,0.00,,,0.00,0,WeatherCatV1.20B785,2013-12-20 12:08:00,
2013-12-20 07:09:00,31.6,28.7,30.08,WNW,289,1.0,2.0,89,0.00,,,0.00,0,WeatherCatV1.20B785,2013-12-20 12:09:00,
2013-12-20 07:11:00,31.5,28.6,30.08,WNW,289,2.0,2.0,89,0.00,,,0.00,0,WeatherCatV1.20B785,2013-12-20 12:11:00,
2013-12-20 07:13:00,31.3,28.4,30.08,WNW,289,1.0,2.0,89,0.00,,,0.00,0,WeatherCatV1.20B785,2013-12-20 12:13:00,
2013-12-20 07:14:00,31.3,28.4,30.08,WNW,289,0.0,2.0,89,0.00,,,0.00,0,WeatherCatV1.20B785,2013-12-20 12:14:00,
2013-12-20 07:18:00,31.1,28.2,30.08,WNW,289,1.0,2.0,89,0.00,,,0.00,0,WeatherCatV1.20B785,2013-12-20 12:18:00,
2013-12-20 07:19:00,31.0,28.1,30.08,WNW,289,2.0,2.0,89,0.00,,,0.00,0,WeatherCatV1.20B785,2013-12-20 12:19:00,
2013-12-20 07:20:00,31.0,28.1,30.08,WNW,289,2.0,2.0,89,0.00,,,0.00,0,WeatherCatV1.20B785,2013-12-20 12:20:00,
2013-12-20 07:23:00,30.8,28.2,30.08,WNW,289,0.0,2.0,90,0.00,,,0.00,0,WeatherCatV1.20B785,2013-12-20 12:23:00,
2013-12-20 07:24:00,30.8,28.2,30.08,WNW,289,0.0,0.0,90,0.00,,,0.00,0,WeatherCatV1.20B785,2013-12-20 12:24:00,
2013-12-20 07:25:00,30.8,28.2,30.08,WNW,289,0.0,0.0,90,0.00,,,0.00,0,WeatherCatV1.20B785,2013-12-20 12:25:00,
2013-12-20 07:26:00,30.7,28.1,30.08,WNW,289,0.0,0.0,90,0.00,,,0.00,0,WeatherCatV1.20B785,2013-12-20 12:26:00,
2013-12-20 07:28:00,30.7,28.1,30.07,WNW,289,0.0,1.0,90,0.00,,,0.00,0,WeatherCatV1.20B785,2013-12-20 12:28:00,
2013-12-20 07:29:00,30.7,28.1,30.07,WNW,289,0.0,1.0,90,0.00,,,0.00,0,WeatherCatV1.20B785,2013-12-20 12:29:00,
2013-12-20 07:30:00,30.7,28.1,30.07,WNW,289,0.0,1.0,90,0.00,,,0.00,0,WeatherCatV1.20B785,2013-12-20 12:30:00,
2013-12-20 07:31:00,30.7,28.1,30.07,WNW,289,0.0,0.0,90,0.00,,,0.00,0,WeatherCatV1.20B785,2013-12-20 12:31:00,
2013-12-20 07:34:00,30.8,28.2,30.07,WNW,289,0.0,1.0,90,0.00,,,0.00,5,WeatherCatV1.20B785,2013-12-20 12:34:00,
2013-12-20 07:35:00,30.8,28.2,30.07,WNW,289,0.0,0.0,90,0.00,,,0.00,5,WeatherCatV1.20B785,2013-12-20 12:35:00,
2013-12-20 07:36:00,30.9,28.3,30.07,WNW,289,0.0,0.0,90,0.00,,,0.00,5,WeatherCatV1.20B785,2013-12-20 12:36:00,
2013-12-20 07:39:00,30.9,28.3,30.07,WNW,289,1.0,1.0,90,0.00,,,0.00,7,WeatherCatV1.20B785,2013-12-20 12:39:00,
2013-12-20 07:40:00,30.9,28.3,30.07,WNW,289,1.0,1.0,90,0.00,,,0.00,9,WeatherCatV1.20B785,2013-12-20 12:40:00,
2013-12-20 07:42:00,31.0,28.4,30.07,WNW,289,0.0,1.0,90,0.00,,,0.00,11,WeatherCatV1.20B785,2013-12-20 12:42:00,
2013-12-20 07:45:00,31.0,28.4,30.07,WNW,289,1.0,1.0,90,0.00,,,0.00,12,WeatherCatV1.20B785,2013-12-20 12:45:00,
2013-12-20 07:47:00,31.0,28.4,30.07,WNW,289,0.0,1.0,90,0.00,,,0.00,12,WeatherCatV1.20B785,2013-12-20 12:47:00,
2013-12-20 07:48:00,31.0,28.4,30.07,WNW,289,0.0,0.0,90,0.00,,,0.00,14,WeatherCatV1.20B785,2013-12-20 12:48:00,
2013-12-20 07:50:00,31.0,28.4,30.07,WNW,289,0.0,0.0,90,0.00,,,0.00,16,WeatherCatV1.20B785,2013-12-20 12:50:00,
2013-12-20 07:51:00,31.0,28.4,30.07,WNW,289,0.0,0.0,90,0.00,,,0.00,16,WeatherCatV1.20B785,2013-12-20 12:51:00,
2013-12-20 07:52:00,31.0,28.4,30.07,WNW,289,0.0,0.0,90,0.00,,,0.00,18,WeatherCatV1.20B785,2013-12-20 12:52:00,
2013-12-20 07:54:00,31.0,28.4,30.07,WNW,289,0.0,0.0,90,0.00,,,0.00,19,WeatherCatV1.20B785,2013-12-20 12:54:00,
2013-12-20 07:56:00,31.0,28.4,30.07,WNW,289,1.0,1.0,90,0.00,,,0.00,21,WeatherCatV1.20B785,2013-12-20 12:56:00,
2013-12-20 07:58:00,31.1,28.5,30.07,WNW,289,0.0,0.0,90,0.00,,,0.00,23,WeatherCatV1.20B785,2013-12-20 12:58:00,
2013-12-20 07:59:00,31.1,28.5,30.07,WNW,289,0.0,0.0,90,0.00,,,0.00,25,WeatherCatV1.20B785,2013-12-20 12:59:00,
2013-12-20 08:01:00,31.2,28.6,30.07,WNW,289,0.0,0.0,90,0.00,,,0.00,28,WeatherCatV1.20B785,2013-12-20 13:01:00,
2013-12-20 08:02:00,31.2,28.6,30.07,WNW,289,0.0,0.0,90,0.00,,,0.00,30,WeatherCatV1.20B785,2013-12-20 13:02:00,
2013-12-20 08:03:00,31.2,28.6,30.07,WNW,289,0.0,0.0,90,0.00,,,0.00,30,WeatherCatV1.20B785,2013-12-20 13:03:00,
2013-12-20 08:05:00,31.3,28.7,30.07,WNW,289,0.0,0.0,90,0.00,,,0.00,33,WeatherCatV1.20B785,2013-12-20 13:05:00,
2013-12-20 08:06:00,31.4,28.8,30.07,WNW,289,0.0,0.0,90,0.00,,,0.00,35,WeatherCatV1.20B785,2013-12-20 13:06:00,
2013-12-20 08:07:00,31.4,28.8,30.07,WNW,289,0.0,0.0,90,0.00,,,0.00,35,WeatherCatV1.20B785,2013-12-20 13:07:00,
2013-12-20 08:08:00,31.4,28.8,30.07,WNW,289,0.0,0.0,90,0.00,,,0.00,37,WeatherCatV1.20B785,2013-12-20 13:08:00,
2013-12-20 08:10:00,31.5,28.9,30.07,WNW,289,0.0,0.0,90,0.00,,,0.00,39,WeatherCatV1.20B785,2013-12-20 13:10:00,
2013-12-20 08:12:00,31.5,28.9,30.07,WNW,289,0.0,0.0,90,0.00,,,0.00,40,WeatherCatV1.20B785,2013-12-20 13:12:00,
2013-12-20 08:13:00,31.6,29.0,30.07,WNW,289,0.0,0.0,90,0.00,,,0.00,44,WeatherCatV1.20B785,2013-12-20 13:13:00,
2013-12-20 08:14:00,31.6,29.0,30.06,WNW,289,0.0,0.0,90,0.00,,,0.00,44,WeatherCatV1.20B785,2013-12-20 13:14:00,
2013-12-20 08:16:00,31.6,29.0,30.07,WNW,289,0.0,0.0,90,0.00,,,0.00,46,WeatherCatV1.20B785,2013-12-20 13:16:00,
2013-12-20 08:17:00,31.7,29.1,30.07,WNW,289,0.0,0.0,90,0.00,,,0.00,47,WeatherCatV1.20B785,2013-12-20 13:17:00,
2013-12-20 08:18:00,31.7,29.1,30.07,WNW,289,0.0,0.0,90,0.00,,,0.00,49,WeatherCatV1.20B785,2013-12-20 13:18:00,
2013-12-20 08:19:00,31.8,29.2,30.07,WNW,289,0.0,0.0,90,0.00,,,0.00,49,WeatherCatV1.20B785,2013-12-20 13:19:00,
2013-12-20 08:20:00,31.8,29.2,30.07,WNW,289,0.0,0.0,90,0.00,,,0.00,51,WeatherCatV1.20B785,2013-12-20 13:20:00,
2013-12-20 08:21:00,31.9,29.3,30.07,WNW,289,0.0,0.0,90,0.00,,,0.00,53,WeatherCatV1.20B785,2013-12-20 13:21:00,
2013-12-20 08:22:00,31.9,29.3,30.07,WNW,289,0.0,0.0,90,0.00,,,0.00,54,WeatherCatV1.20B785,2013-12-20 13:22:00,
2013-12-20 08:23:00,32.0,29.4,30.07,WNW,289,0.0,0.0,90,0.00,,,0.00,54,WeatherCatV1.20B785,2013-12-20 13:23:00,
2013-12-20 08:24:00,32.0,29.4,30.07,WNW,289,0.0,0.0,90,0.00,,,0.00,56,WeatherCatV1.20B785,2013-12-20 13:24:00,
2013-12-20 08:25:00,32.1,29.5,30.07,WNW,289,0.0,0.0,90,0.00,,,0.00,56,WeatherCatV1.20B785,2013-12-20 13:25:00,
2013-12-20 08:26:00,32.1,29.5,30.07,WNW,289,0.0,0.0,90,0.00,,,0.00,58,WeatherCatV1.20B785,2013-12-20 13:26:00,
2013-12-20 08:29:00,32.3,29.7,30.07,WNW,289,0.0,0.0,90,0.00,,,0.00,62,WeatherCatV1.20B785,2013-12-20 13:29:00,
2013-12-20 08:30:00,32.3,29.7,30.07,WNW,289,0.0,0.0,90,0.00,,,0.00,62,WeatherCatV1.20B785,2013-12-20 13:30:00,
2013-12-20 08:31:00,32.4,29.8,30.07,WNW,289,0.0,0.0,90,0.00,,,0.00,63,WeatherCatV1.20B785,2013-12-20 13:31:00,
2013-12-20 08:34:00,32.5,29.9,30.07,WNW,289,0.0,0.0,90,0.00,,,0.00,63,WeatherCatV1.20B785,2013-12-20 13:34:00,
2013-12-20 08:35:00,32.6,30.0,30.07,WNW,289,0.0,0.0,90,0.00,,,0.00,63,WeatherCatV1.20B785,2013-12-20 13:35:00,
2013-12-20 08:36:00,32.6,30.0,30.07,WNW,289,0.0,0.0,90,0.00,,,0.00,67,WeatherCatV1.20B785,2013-12-20 13:36:00,
2013-12-20 08:37:00,32.8,30.2,30.07,WNW,289,0.0,0.0,90,0.00,,,0.00,67,WeatherCatV1.20B785,2013-12-20 13:37:00,
2013-12-20 08:39:00,32.9,30.3,30.07,WNW,289,0.0,0.0,90,0.00,,,0.00,69,WeatherCatV1.20B785,2013-12-20 13:39:00,
2013-12-20 08:40:00,33.0,30.4,30.07,WNW,289,0.0,0.0,90,0.00,,,0.00,69,WeatherCatV1.20B785,2013-12-20 13:40:00,
2013-12-20 08:41:00,33.1,30.5,30.07,WNW,289,0.0,0.0,90,0.00,,,0.00,70,WeatherCatV1.20B785,2013-12-20 13:41:00,
2013-12-20 08:42:00,33.1,30.5,30.07,WNW,289,0.0,0.0,90,0.00,,,0.00,72,WeatherCatV1.20B785,2013-12-20 13:42:00,
2013-12-20 08:44:00,33.3,30.7,30.07,WNW,289,0.0,0.0,90,0.00,,,0.00,74,WeatherCatV1.20B785,2013-12-20 13:44:00,
2013-12-20 08:45:00,33.3,30.7,30.07,WNW,289,0.0,0.0,90,0.00,,,0.00,76,WeatherCatV1.20B785,2013-12-20 13:45:00,
2013-12-20 08:46:00,33.3,30.7,30.07,WNW,289,0.0,0.0,90,0.00,,,0.00,77,WeatherCatV1.20B785,2013-12-20 13:46:00,
2013-12-20 08:47:00,33.4,30.8,30.07,WNW,289,0.0,0.0,90,0.00,,,0.00,77,WeatherCatV1.20B785,2013-12-20 13:47:00,
2013-12-20 08:50:00,33.5,30.9,30.07,WNW,289,0.0,0.0,90,0.00,,,0.00,83,WeatherCatV1.20B785,2013-12-20 13:50:00,
2013-12-20 08:51:00,33.6,30.7,30.07,WNW,289,0.0,0.0,89,0.00,,,0.00,84,WeatherCatV1.20B785,2013-12-20 13:51:00,
2013-12-20 08:52:00,33.7,30.8,30.07,WNW,289,0.0,0.0,89,0.00,,,0.00,84,WeatherCatV1.20B785,2013-12-20 13:52:00,
2013-12-20 08:56:00,33.9,31.0,30.07,WNW,289,0.0,0.0,89,0.00,,,0.00,84,WeatherCatV1.20B785,2013-12-20 13:56:00,
2013-12-20 08:57:00,33.9,31.0,30.07,WNW,289,0.0,0.0,89,0.00,,,0.00,84,WeatherCatV1.20B785,2013-12-20 13:57:00,
2013-12-20 08:58:00,34.0,31.1,30.07,WNW,289,0.0,0.0,89,0.00,,,0.00,84,WeatherCatV1.20B785,2013-12-20 13:58:00,
2013-12-20 09:01:00,34.2,31.3,30.07,WNW,289,0.0,0.0,89,0.00,,,0.00,86,WeatherCatV1.20B785,2013-12-20 14:01:00,
2013-12-20 09:02:00,34.3,31.4,30.07,WNW,289,0.0,0.0,89,0.00,,,0.00,88,WeatherCatV1.20B785,2013-12-20 14:02:00,
2013-12-20 09:03:00,34.4,31.5,30.07,WNW,289,0.0,0.0,89,0.00,,,0.00,90,WeatherCatV1.20B785,2013-12-20 14:03:00,
2013-12-20 09:06:00,34.6,31.4,30.07,WNW,289,0.0,0.0,88,0.00,,,0.00,95,WeatherCatV1.20B785,2013-12-20 14:06:00,
2013-12-20 09:07:00,34.7,31.5,30.07,WNW,289,0.0,0.0,88,0.00,,,0.00,98,WeatherCatV1.20B785,2013-12-20 14:07:00,
2013-12-20 09:08:00,34.8,31.6,30.07,WNW,289,0.0,0.0,88,0.00,,,0.00,100,WeatherCatV1.20B785,2013-12-20 14:08:00,
2013-12-20 09:09:00,34.8,31.6,30.07,WNW,289,0.0,0.0,88,0.00,,,0.00,100,WeatherCatV1.20B785,2013-12-20 14:09:00,
2013-12-20 09:11:00,35.0,31.8,30.07,WNW,289,0.0,0.0,88,0.00,,,0.00,105,WeatherCatV1.20B785,2013-12-20 14:11:00,
2013-12-20 09:12:00,35.1,31.9,30.07,WNW,289,0.0,0.0,88,0.00,,,0.00,109,WeatherCatV1.20B785,2013-12-20 14:12:00,
2013-12-20 09:14:00,35.2,32.0,30.07,WNW,289,0.0,0.0,88,0.00,,,0.00,111,WeatherCatV1.20B785,2013-12-20 14:14:00,
2013-12-20 09:16:00,35.6,32.1,30.07,WNW,289,0.0,0.0,87,0.00,,,0.00,114,WeatherCatV1.20B785,2013-12-20 14:16:00,
2013-12-20 09:18:00,35.7,31.9,30.07,WNW,289,0.0,0.0,86,0.00,,,0.00,116,WeatherCatV1.20B785,2013-12-20 14:18:00,
2013-12-20 09:19:00,35.9,32.1,30.07,WNW,289,0.0,0.0,86,0.00,,,0.00,116,WeatherCatV1.20B785,2013-12-20 14:19:00,
2013-12-20 09:20:00,35.9,32.1,30.07,WNW,289,0.0,0.0,86,0.00,,,0.00,118,WeatherCatV1.20B785,2013-12-20 14:20:00,
2013-12-20 09:23:00,36.2,32.7,30.07,WNW,289,0.0,0.0,87,0.00,,,0.00,121,WeatherCatV1.20B785,2013-12-20 14:23:00,
2013-12-20 09:24:00,36.4,32.9,30.07,WNW,289,0.0,0.0,87,0.00,,,0.00,128,WeatherCatV1.20B785,2013-12-20 14:24:00,
2013-12-20 09:25:00,36.4,32.9,30.07,WNW,289,0.0,0.0,87,0.00,,,0.00,128,WeatherCatV1.20B785,2013-12-20 14:25:00,
2013-12-20 09:26:00,36.5,33.0,30.07,WNW,289,0.0,0.0,87,0.00,,,0.00,132,WeatherCatV1.20B785,2013-12-20 14:26:00,
2013-12-20 09:28:00,36.7,32.9,30.07,WNW,289,0.0,0.0,86,0.00,,,0.00,137,WeatherCatV1.20B785,2013-12-20 14:28:00,
2013-12-20 09:29:00,37.0,32.9,30.07,WNW,289,0.0,0.0,85,0.00,,,0.00,148,WeatherCatV1.20B785,2013-12-20 14:29:00,
2013-12-20 09:30:00,37.0,32.9,30.07,WNW,289,0.0,0.0,85,0.00,,,0.00,148,WeatherCatV1.20B785,2013-12-20 14:30:00,
2013-12-20 09:31:00,37.1,33.0,30.07,WNW,289,0.0,0.0,85,0.00,,,0.00,151,WeatherCatV1.20B785,2013-12-20 14:31:00,
2013-12-20 09:33:00,37.3,33.2,30.07,WNW,289,0.0,0.0,85,0.00,,,0.00,151,WeatherCatV1.20B785,2013-12-20 14:33:00,
2013-12-20 09:35:00,37.4,33.3,30.07,WNW,289,0.0,0.0,85,0.00,,,0.00,146,WeatherCatV1.20B785,2013-12-20 14:35:00,
2013-12-20 09:36:00,37.5,33.4,30.08,WNW,289,0.0,0.0,85,0.00,,,0.00,144,WeatherCatV1.20B785,2013-12-20 14:36:00,
2013-12-20 09:37:00,37.6,33.5,30.08,WNW,289,0.0,0.0,85,0.00,,,0.00,141,WeatherCatV1.20B785,2013-12-20 14:37:00,
2013-12-20 09:38:00,37.7,33.6,30.08,WNW,289,0.0,0.0,85,0.00,,,0.00,137,WeatherCatV1.20B785,2013-12-20 14:38:00,
2013-12-20 09:41:00,38.0,33.9,30.07,WNW,289,0.0,0.0,85,0.00,,,0.00,134,WeatherCatV1.20B785,2013-12-20 14:41:00,
2013-12-20 09:42:00,38.0,33.9,30.07,WNW,289,0.0,0.0,85,0.00,,,0.00,128,WeatherCatV1.20B785,2013-12-20 14:42:00,
2013-12-20 09:43:00,38.2,34.1,30.07,WNW,289,0.0,0.0,85,0.00,,,0.00,127,WeatherCatV1.20B785,2013-12-20 14:43:00,
2013-12-20 09:46:00,38.3,34.2,30.07,WNW,289,0.0,0.0,85,0.00,,,0.00,125,WeatherCatV1.20B785,2013-12-20 14:46:00,
2013-12-20 09:47:00,38.3,33.6,30.07,WNW,289,0.0,0.0,83,0.00,,,0.00,123,WeatherCatV1.20B785,2013-12-20 14:47:00,
2013-12-20 09:48:00,38.3,33.6,30.07,WNW,289,0.0,0.0,83,0.00,,,0.00,123,WeatherCatV1.20B785,2013-12-20 14:48:00,
2013-12-20 09:51:00,38.4,34.0,30.08,WNW,289,0.0,1.0,84,0.00,,,0.00,120,WeatherCatV1.20B785,2013-12-20 14:51:00,
2013-12-20 09:52:00,38.4,34.0,30.08,WNW,289,1.0,1.0,84,0.00,,,0.00,120,WeatherCatV1.20B785,2013-12-20 14:52:00,
2013-12-20 09:53:00,38.5,34.4,30.07,WNW,289,0.0,1.0,85,0.00,,,0.00,120,WeatherCatV1.20B785,2013-12-20 14:53:00,
2013-12-20 09:54:00,38.6,34.2,30.07,WNW,289,0.0,0.0,84,0.00,,,0.00,121,WeatherCatV1.20B785,2013-12-20 14:54:00,
2013-12-20 09:57:00,38.6,33.9,30.07,WNW,289,0.0,0.0,83,0.00,,,0.00,120,WeatherCatV1.20B785,2013-12-20 14:57:00,
2013-12-20 09:58:00,38.7,34.0,30.07,WNW,289,0.0,1.0,83,0.00,,,0.00,118,WeatherCatV1.20B785,2013-12-20 14:58:00,
2013-12-20 09:59:00,38.7,34.0,30.07,WNW,289,0.0,1.0,83,0.00,,,0.00,118,WeatherCatV1.20B785,2013-12-20 14:59:00,
2013-12-20 10:00:00,38.8,34.1,30.07,WNW,289,0.0,1.0,83,0.00,,,0.00,116,WeatherCatV1.20B785,2013-12-20 15:00:00,
2013-12-20 10:02:00,38.9,34.2,30.08,WNW,289,0.0,1.0,83,0.00,,,0.00,116,WeatherCatV1.20B785,2013-12-20 15:02:00,
2013-12-20 10:03:00,39.0,34.3,30.08,WNW,289,0.0,1.0,83,0.00,,,0.00,114,WeatherCatV1.20B785,2013-12-20 15:03:00,
2013-12-20 10:04:00,39.0,34.3,30.08,WNW,289,0.0,1.0,83,0.00,,,0.00,114,WeatherCatV1.20B785,2013-12-20 15:04:00,
2013-12-20 10:05:00,39.1,34.4,30.08,WNW,289,0.0,1.0,83,0.00,,,0.00,113,WeatherCatV1.20B785,2013-12-20 15:05:00,
2013-12-20 10:06:00,39.1,34.4,30.08,WNW,289,0.0,1.0,83,0.00,,,0.00,113,WeatherCatV1.20B785,2013-12-20 15:06:00,
2013-12-20 10:07:00,39.2,34.5,30.08,WNW,289,1.0,1.0,83,0.00,,,0.00,113,WeatherCatV1.20B785,2013-12-20 15:07:00,
2013-12-20 10:08:00,39.3,34.3,30.08,WNW,289,1.0,2.0,82,0.00,,,0.00,114,WeatherCatV1.20B785,2013-12-20 15:08:00,
2013-12-20 10:09:00,39.3,34.3,30.08,WNW,289,2.0,2.0,82,0.00,,,0.00,114,WeatherCatV1.20B785,2013-12-20 15:09:00,
2013-12-20 10:10:00,39.4,34.7,30.08,WNW,289,2.0,2.0,83,0.00,,,0.00,118,WeatherCatV1.20B785,2013-12-20 15:10:00,
2013-12-20 10:11:00,39.5,34.8,30.08,WNW,289,2.0,2.0,83,0.00,,,0.00,120,WeatherCatV1.20B785,2013-12-20 15:11:00,
2013-12-20 10:12:00,39.5,34.8,30.08,WNW,289,1.0,2.0,83,0.00,,,0.00,121,WeatherCatV1.20B785,2013-12-20 15:12:00,
2013-12-20 10:14:00,39.6,34.0,30.08,WNW,289,0.0,1.0,80,0.00,,,0.00,123,WeatherCatV1.20B785,2013-12-20 15:14:00,
2013-12-20 10:15:00,39.7,33.7,30.08,WNW,289,0.0,1.0,79,0.00,,,0.00,128,WeatherCatV1.20B785,2013-12-20 15:15:00,
2013-12-20 10:16:00,39.9,33.6,30.08,WNW,289,0.0,0.0,78,0.00,,,0.00,134,WeatherCatV1.20B785,2013-12-20 15:16:00,
2013-12-20 10:17:00,40.0,33.7,30.08,WNW,289,1.0,1.0,78,0.00,,,0.00,134,WeatherCatV1.20B785,2013-12-20 15:17:00,
2013-12-20 10:18:00,40.0,33.7,30.08,WNW,289,0.0,1.0,78,0.00,,,0.00,137,WeatherCatV1.20B785,2013-12-20 15:18:00,
2013-12-20 10:20:00,40.3,34.0,30.08,WNW,289,1.0,1.0,78,0.00,,,0.00,141,WeatherCatV1.20B785,2013-12-20 15:20:00,
2013-12-20 10:21:00,40.4,34.1,30.08,WNW,289,1.0,1.0,78,0.00,,,0.00,141,WeatherCatV1.20B785,2013-12-20 15:21:00,
2013-12-20 10:22:00,40.4,34.1,30.08,WNW,289,0.0,1.0,78,0.00,,,0.00,141,WeatherCatV1.20B785,2013-12-20 15:22:00,
2013-12-20 10:23:00,40.6,34.3,30.08,WNW,289,1.0,1.0,78,0.00,,,0.00,137,WeatherCatV1.20B785,2013-12-20 15:23:00,
2013-12-20 10:25:00,40.8,34.2,30.08,WNW,289,1.0,2.0,77,0.00,,,0.00,134,WeatherCatV1.20B785,2013-12-20 15:25:00,
2013-12-20 10:26:00,40.9,34.2,30.08,WNW,288,1.0,2.0,77,0.00,,,0.00,134,WeatherCatV1.20B785,2013-12-20 15:26:00,
2013-12-20 10:27:00,41.0,34.3,30.08,WNW,288,2.0,3.0,77,0.00,,,0.00,134,WeatherCatV1.20B785,2013-12-20 15:27:00,
2013-12-20 10:28:00,41.1,34.1,30.08,WNW,288,2.0,3.0,76,0.00,,,0.00,134,WeatherCatV1.20B785,2013-12-20 15:28:00,
2013-12-20 10:29:00,41.2,33.9,30.08,WNW,288,2.0,2.0,75,0.00,,,0.00,137,WeatherCatV1.20B785,2013-12-20 15:29:00,
2013-12-20 10:30:00,41.3,34.3,30.07,WNW,287,3.0,3.0,76,0.00,,,0.00,144,WeatherCatV1.20B785,2013-12-20 15:30:00,
2013-12-20 10:31:00,41.3,34.3,30.08,WNW,287,1.0,3.0,76,0.00,,,0.00,144,WeatherCatV1.20B785,2013-12-20 15:31:00,
2013-12-20 10:32:00,41.4,34.4,30.07,WNW,287,2.0,3.0,76,0.00,,,0.00,153,WeatherCatV1.20B785,2013-12-20 15:32:00,
2013-12-20 10:33:00,41.5,33.8,30.07,WNW,287,2.0,3.0,74,0.00,,,0.00,155,WeatherCatV1.20B785,2013-12-20 15:33:00,
2013-12-20 10:36:00,41.7,35.0,30.07,WNW,287,2.0,3.0,77,0.00,,,0.00,163,WeatherCatV1.20B785,2013-12-20 15:36:00,
2013-12-20 10:37:00,41.8,35.1,30.07,WNW,287,0.0,1.0,77,0.00,,,0.00,174,WeatherCatV1.20B785,2013-12-20 15:37:00,
2013-12-20 10:38:00,41.9,34.9,30.07,WNW,287,1.0,1.0,76,0.00,,,0.00,178,WeatherCatV1.20B785,2013-12-20 15:38:00,
2013-12-20 10:39:00,42.0,34.3,30.07,WNW,287,1.0,1.0,74,0.00,,,0.00,183,WeatherCatV1.20B785,2013-12-20 15:39:00,
2013-12-20 10:41:00,42.2,34.2,30.07,WNW,287,2.0,3.0,73,0.00,,,0.00,190,WeatherCatV1.20B785,2013-12-20 15:41:00,
2013-12-20 10:42:00,42.3,34.3,30.07,WNW,287,1.0,2.0,73,0.00,,,0.00,193,WeatherCatV1.20B785,2013-12-20 15:42:00,
2013-12-20 10:43:00,42.5,34.1,30.07,WNW,287,2.0,2.0,72,0.00,,,0.00,193,WeatherCatV1.20B785,2013-12-20 15:43:00,
2013-12-20 10:45:00,42.7,34.3,30.07,WNW,287,3.0,3.0,72,0.00,,,0.00,193,WeatherCatV1.20B785,2013-12-20 15:45:00,
2013-12-20 10:46:00,43.0,35.6,30.07,WNW,287,2.0,3.0,75,0.00,,,0.00,195,WeatherCatV1.20B785,2013-12-20 15:46:00,
2013-12-20 10:47:00,43.1,35.4,30.07,WNW,287,3.0,3.0,74,0.00,,,0.00,195,WeatherCatV1.20B785,2013-12-20 15:47:00,
2013-12-20 10:48:00,43.2,35.8,30.07,WNW,286,3.0,3.0,75,0.00,,,0.00,197,WeatherCatV1.20B785,2013-12-20 15:48:00,
2013-12-20 10:50:00,43.4,35.7,30.07,WSW,245,2.0,3.0,74,0.00,,,0.00,202,WeatherCatV1.20B785,2013-12-20 15:50:00,
2013-12-20 10:51:00,43.7,34.2,30.07,WSW,254,1.0,3.0,69,0.00,,,0.00,206,WeatherCatV1.20B785,2013-12-20 15:51:00,
2013-12-20 10:52:00,43.7,34.2,30.07,WSW,250,2.0,3.0,69,0.00,,,0.00,207,WeatherCatV1.20B785,2013-12-20 15:52:00,
2013-12-20 10:53:00,44.0,34.5,30.07,WSW,250,1.0,2.0,69,0.00,,,0.00,207,WeatherCatV1.20B785,2013-12-20 15:53:00,
2013-12-20 10:54:00,44.2,34.3,30.07,WSW,250,2.0,2.0,68,0.00,,,0.00,207,WeatherCatV1.20B785,2013-12-20 15:54:00,
2013-12-20 10:55:00,44.4,34.1,30.07,WSW,249,2.0,3.0,67,0.00,,,0.00,200,WeatherCatV1.20B785,2013-12-20 15:55:00,
2013-12-20 10:57:00,44.9,33.9,30.07,WSW,246,2.0,3.0,65,0.00,,,0.00,193,WeatherCatV1.20B785,2013-12-20 15:57:00,
2013-12-20 10:58:00,45.1,34.0,30.07,WSW,246,2.0,2.0,65,0.00,,,0.00,192,WeatherCatV1.20B785,2013-12-20 15:58:00,
2013-12-20 10:59:00,45.5,33.7,30.06,WSW,246,2.0,3.0,63,0.00,,,0.00,190,WeatherCatV1.20B785,2013-12-20 15:59:00,
2013-12-20 11:00:00,45.7,33.8,30.06,WSW,246,0.0,3.0,63,0.00,,,0.00,192,WeatherCatV1.20B785,2013-12-20 16:00:00,
2013-12-20 11:02:00,46.2,34.3,30.06,WSW,246,0.0,1.0,63,0.00,,,0.00,197,WeatherCatV1.20B785,2013-12-20 16:02:00,
2013-12-20 11:03:00,46.2,34.3,30.06,WSW,246,0.0,0.0,63,0.00,,,0.00,199,WeatherCatV1.20B785,2013-12-20 16:03:00,
2013-12-20 11:04:00,46.5,34.2,30.06,WSW,246,0.0,1.0,62,0.00,,,0.00,202,WeatherCatV1.20B785,2013-12-20 16:04:00,
2013-12-20 11:05:00,46.7,34.4,30.06,WSW,246,0.0,1.0,62,0.00,,,0.00,207,WeatherCatV1.20B785,2013-12-20 16:05:00,
2013-12-20 11:06:00,46.9,34.6,30.06,WSW,246,0.0,0.0,62,0.00,,,0.00,207,WeatherCatV1.20B785,2013-12-20 16:06:00,
2013-12-20 11:08:00,47.2,34.5,30.06,WSW,246,1.0,1.0,61,0.00,,,0.00,207,WeatherCatV1.20B785,2013-12-20 16:08:00,
2013-12-20 11:09:00,47.3,35.0,30.06,WSW,246,1.0,2.0,62,0.00,,,0.00,207,WeatherCatV1.20B785,2013-12-20 16:09:00,
2013-12-20 11:10:00,47.6,35.2,30.06,WSW,246,2.0,2.0,62,0.00,,,0.00,214,WeatherCatV1.20B785,2013-12-20 16:10:00,
2013-12-20 11:11:00,47.7,35.7,30.06,WSW,246,1.0,2.0,63,0.00,,,0.00,213,WeatherCatV1.20B785,2013-12-20 16:11:00,
2013-12-20 11:13:00,47.8,36.2,30.05,WSW,246,2.0,2.0,64,0.00,,,0.00,207,WeatherCatV1.20B785,2013-12-20 16:13:00,
2013-12-20 11:14:00,47.9,36.3,30.06,WSW,246,2.0,3.0,64,0.00,,,0.00,207,WeatherCatV1.20B785,2013-12-20 16:14:00,
2013-12-20 11:15:00,47.9,35.9,30.06,WSW,246,1.0,3.0,63,0.00,,,0.00,207,WeatherCatV1.20B785,2013-12-20 16:15:00,
2013-12-20 11:16:00,48.0,36.4,30.06,WSW,247,2.0,3.0,64,0.00,,,0.00,206,WeatherCatV1.20B785,2013-12-20 16:16:00,
2013-12-20 11:18:00,48.2,35.0,30.06,WSW,245,1.0,3.0,60,0.00,,,0.00,206,WeatherCatV1.20B785,2013-12-20 16:18:00,
2013-12-20 11:19:00,48.2,35.0,30.05,WSW,245,2.0,3.0,60,0.00,,,0.00,207,WeatherCatV1.20B785,2013-12-20 16:19:00,
2013-12-20 11:21:00,48.4,34.3,30.06,WSW,250,2.0,3.0,58,0.00,,,0.00,211,WeatherCatV1.20B785,2013-12-20 16:21:00,
2013-12-20 11:22:00,48.5,34.0,30.06,WSW,250,1.0,3.0,57,0.00,,,0.00,211,WeatherCatV1.20B785,2013-12-20 16:22:00,
2013-12-20 11:24:00,48.9,34.8,30.05,WSW,254,1.0,3.0,58,0.00,,,0.00,204,WeatherCatV1.20B785,2013-12-20 16:24:00,
2013-12-20 11:26:00,49.1,34.5,30.05,WSW,254,1.0,2.0,57,0.00,,,0.00,195,WeatherCatV1.20B785,2013-12-20 16:26:00,
2013-12-20 11:28:00,49.4,34.4,30.05,WSW,254,1.0,3.0,56,0.00,,,0.00,186,WeatherCatV1.20B785,2013-12-20 16:28:00,
2013-12-20 11:29:00,49.6,34.1,30.05,WSW,246,1.0,3.0,55,0.00,,,0.00,183,WeatherCatV1.20B785,2013-12-20 16:29:00,
2013-12-20 11:30:00,49.6,34.1,30.05,WSW,247,1.0,3.0,55,0.00,,,0.00,183,WeatherCatV1.20B785,2013-12-20 16:30:00,
2013-12-20 11:31:00,49.9,33.9,30.05,WSW,247,1.0,3.0,54,0.00,,,0.00,185,WeatherCatV1.20B785,2013-12-20 16:31:00,
2013-12-20 11:33:00,50.1,34.6,30.05,WSW,250,2.0,3.0,55,0.00,,,0.00,188,WeatherCatV1.20B785,2013-12-20 16:33:00,
2013-12-20 11:35:00,50.2,34.7,30.05,WSW,250,2.0,2.0,55,0.00,,,0.00,192,WeatherCatV1.20B785,2013-12-20 16:35:00,
2013-12-20 11:37:00,50.5,34.0,30.05,WSW,255,2.0,4.0,53,0.00,,,0.00,190,WeatherCatV1.20B785,2013-12-20 16:37:00,
2013-12-20 11:39:00,50.7,34.2,30.05,WSW,255,0.0,2.0,53,0.00,,,0.00,186,WeatherCatV1.20B785,2013-12-20 16:39:00,
2013-12-20 11:40:00,50.8,34.3,30.05,WSW,255,1.0,1.0,53,0.00,,,0.00,185,WeatherCatV1.20B785,2013-12-20 16:40:00,
2013-12-20 11:43:00,51.1,34.6,30.05,SW,224,4.0,4.0,53,0.00,,,0.00,183,WeatherCatV1.20B785,2013-12-20 16:43:00,
2013-12-20 11:44:00,51.3,34.3,30.05,SSW,210,1.0,4.0,52,0.00,,,0.00,181,WeatherCatV1.20B785,2013-12-20 16:44:00,
2013-12-20 11:45:00,51.3,34.3,30.05,SSW,210,1.0,1.0,52,0.00,,,0.00,181,WeatherCatV1.20B785,2013-12-20 16:45:00,
2013-12-20 11:46:00,51.4,34.4,30.05,SSW,210,0.0,1.0,52,0.00,,,0.00,181,WeatherCatV1.20B785,2013-12-20 16:46:00,
2013-12-20 11:48:00,51.6,35.0,30.04,West,261,0.0,4.0,53,0.00,,,0.00,172,WeatherCatV1.20B785,2013-12-20 16:48:00,
2013-12-20 11:50:00,51.7,34.7,30.04,West,261,1.0,2.0,52,0.00,,,0.00,167,WeatherCatV1.20B785,2013-12-20 16:50:00,
2013-12-20 11:51:00,51.8,34.7,30.04,West,261,1.0,2.0,52,0.00,,,0.00,165,WeatherCatV1.20B785,2013-12-20 16:51:00,
2013-12-20 11:54:00,51.9,34.8,30.04,West,260,0.0,3.0,52,0.00,,,0.00,167,WeatherCatV1.20B785,2013-12-20 16:54:00,
2013-12-20 11:56:00,52.0,34.9,30.04,West,271,0.0,0.0,52,0.00,,,0.00,171,WeatherCatV1.20B785,2013-12-20 16:56:00,
2013-12-20 11:58:00,52.1,35.0,30.03,West,264,0.0,2.0,52,0.00,,,0.00,169,WeatherCatV1.20B785,2013-12-20 16:58:00,
2013-12-20 12:00:00,52.1,35.0,30.03,West,264,1.0,2.0,52,0.00,,,0.00,165,WeatherCatV1.20B785,2013-12-20 17:00:00,
2013-12-20 12:01:00,52.2,35.1,30.03,WSW,257,1.0,3.0,52,0.00,,,0.00,163,WeatherCatV1.20B785,2013-12-20 17:01:00,
2013-12-20 12:03:00,52.2,35.1,30.03,WSW,256,2.0,3.0,52,0.00,,,0.00,160,WeatherCatV1.20B785,2013-12-20 17:03:00,
2013-12-20 12:06:00,52.1,34.5,30.03,WSW,254,2.0,3.0,51,0.00,,,0.00,156,WeatherCatV1.20B785,2013-12-20 17:06:00,
2013-12-20 12:07:00,52.1,34.0,30.03,WSW,257,3.0,3.0,50,0.00,,,0.00,160,WeatherCatV1.20B785,2013-12-20 17:07:00,
2013-12-20 12:08:00,52.1,34.0,30.03,WSW,248,3.0,5.0,50,0.00,,,0.00,165,WeatherCatV1.20B785,2013-12-20 17:08:00,
2013-12-20 12:09:00,52.2,33.6,30.03,WSW,246,3.0,5.0,49,0.00,,,0.00,169,WeatherCatV1.20B785,2013-12-20 17:09:00,
2013-12-20 12:11:00,52.3,34.7,30.03,WSW,245,3.0,3.0,51,0.00,,,0.00,174,WeatherCatV1.20B785,2013-12-20 17:11:00,
2013-12-20 12:13:00,52.3,34.2,30.03,SW,235,4.0,4.0,50,0.00,,,0.00,178,WeatherCatV1.20B785,2013-12-20 17:13:00,
2013-12-20 12:14:00,52.4,34.3,30.03,WSW,240,0.0,4.0,50,0.00,,,0.00,176,WeatherCatV1.20B785,2013-12-20 17:14:00,
2013-12-20 12:16:00,52.5,33.9,30.02,SW,235,0.0,3.0,49,0.00,,,0.00,176,WeatherCatV1.20B785,2013-12-20 17:16:00,
2013-12-20 12:18:00,52.5,33.9,30.02,WSW,246,1.0,3.0,49,0.00,,,0.00,179,WeatherCatV1.20B785,2013-12-20 17:18:00,
2013-12-20 12:19:00,52.6,34.5,30.02,SW,229,2.0,3.0,50,0.00,,,0.00,183,WeatherCatV1.20B785,2013-12-20 17:19:00,
2013-12-20 12:20:00,52.6,34.5,30.02,SW,231,0.0,2.0,50,0.00,,,0.00,190,WeatherCatV1.20B785,2013-12-20 17:20:00,
2013-12-20 12:21:00,52.6,34.5,30.02,SW,231,2.0,2.0,50,0.00,,,0.00,193,WeatherCatV1.20B785,2013-12-20 17:21:00,
2013-12-20 12:22:00,52.6,34.5,30.02,SW,232,2.0,2.0,50,0.00,,,0.00,193,WeatherCatV1.20B785,2013-12-20 17:22:00,
2013-12-20 12:23:00,52.6,34.0,30.02,SW,233,1.0,3.0,49,0.00,,,0.00,200,WeatherCatV1.20B785,2013-12-20 17:23:00,
2013-12-20 12:24:00,52.7,34.6,30.02,SW,233,2.0,3.0,50,0.00,,,0.00,206,WeatherCatV1.20B785,2013-12-20 17:24:00,
2013-12-20 12:25:00,52.7,34.6,30.02,SW,233,2.0,2.0,50,0.00,,,0.00,207,WeatherCatV1.20B785,2013-12-20 17:25:00,
2013-12-20 12:26:00,52.7,34.1,30.02,SW,233,2.0,2.0,49,0.00,,,0.00,209,WeatherCatV1.20B785,2013-12-20 17:26:00,
2013-12-20 12:27:00,52.8,33.7,30.02,SW,233,1.0,3.0,48,0.00,,,0.00,207,WeatherCatV1.20B785,2013-12-20 17:27:00,
2013-12-20 12:28:00,52.9,33.8,30.01,WNW,283,4.0,5.0,48,0.00,,,0.00,206,WeatherCatV1.20B785,2013-12-20 17:28:00,
2013-12-20 12:29:00,53.0,33.8,30.02,WSW,250,2.0,5.0,48,0.00,,,0.00,206,WeatherCatV1.20B785,2013-12-20 17:29:00,
2013-12-20 12:30:00,53.1,33.4,30.02,SW,225,4.0,5.0,47,0.00,,,0.00,206,WeatherCatV1.20B785,2013-12-20 17:30:00,
2013-12-20 12:31:00,53.2,33.5,30.02,WSW,258,2.0,4.0,47,0.00,,,0.00,211,WeatherCatV1.20B785,2013-12-20 17:31:00,
2013-12-20 12:32:00,53.3,34.1,30.02,WSW,255,2.0,3.0,48,0.00,,,0.00,213,WeatherCatV1.20B785,2013-12-20 17:32:00,
2013-12-20 12:33:00,53.4,35.2,30.02,WSW,248,2.0,3.0,50,0.00,,,0.00,209,WeatherCatV1.20B785,2013-12-20 17:33:00,
2013-12-20 12:35:00,53.5,34.3,30.02,WSW,246,1.0,3.0,48,0.00,,,0.00,206,WeatherCatV1.20B785,2013-12-20 17:35:00,
2013-12-20 12:36:00,53.5,33.8,30.02,WSW,242,1.0,4.0,47,0.00,,,0.00,214,WeatherCatV1.20B785,2013-12-20 17:36:00,
2013-12-20 12:37:00,53.5,34.3,30.02,WSW,242,1.0,4.0,48,0.00,,,0.00,209,WeatherCatV1.20B785,2013-12-20 17:37:00,
2013-12-20 12:38:00,53.5,33.8,30.02,WSW,242,2.0,2.0,47,0.00,,,0.00,207,WeatherCatV1.20B785,2013-12-20 17:38:00,
2013-12-20 12:40:00,53.5,33.8,30.02,WSW,237,2.0,3.0,47,0.00,,,0.00,200,WeatherCatV1.20B785,2013-12-20 17:40:00,
2013-12-20 12:42:00,53.7,34.0,30.01,WSW,238,3.0,4.0,47,0.00,,,0.00,195,WeatherCatV1.20B785,2013-12-20 17:42:00,
2013-12-20 12:43:00,53.8,33.5,30.01,SW,229,1.0,4.0,46,0.00,,,0.00,199,WeatherCatV1.20B785,2013-12-20 17:43:00,
2013-12-20 12:44:00,53.9,33.6,30.01,WSW,239,1.0,4.0,46,0.00,,,0.00,199,WeatherCatV1.20B785,2013-12-20 17:44:00,
2013-12-20 12:45:00,53.9,33.6,30.01,WSW,241,2.0,3.0,46,0.00,,,0.00,207,WeatherCatV1.20B785,2013-12-20 17:45:00,
2013-12-20 12:46:00,53.9,33.6,30.01,SW,225,1.0,5.0,46,0.00,,,0.00,229,WeatherCatV1.20B785,2013-12-20 17:46:00,
2013-12-20 12:48:00,54.1,33.2,30.00,SW,218,1.0,2.0,45,0.00,,,0.00,246,WeatherCatV1.20B785,2013-12-20 17:48:00,
2013-12-20 12:49:00,54.2,33.9,30.00,SW,221,1.0,2.0,46,0.00,,,0.00,232,WeatherCatV1.20B785,2013-12-20 17:49:00,
2013-12-20 12:50:00,54.2,34.4,30.00,SW,221,0.0,2.0,47,0.00,,,0.00,232,WeatherCatV1.20B785,2013-12-20 17:50:00,
2013-12-20 12:51:00,54.3,34.5,30.00,WNW,285,2.0,2.0,47,0.00,,,0.00,255,WeatherCatV1.20B785,2013-12-20 17:51:00,
2013-12-20 12:53:00,54.5,33.6,30.00,WSW,246,2.0,2.0,45,0.00,,,0.00,197,WeatherCatV1.20B785,2013-12-20 17:53:00,
2013-12-20 12:55:00,54.6,33.7,30.00,West,265,2.0,2.0,45,0.00,,,0.00,183,WeatherCatV1.20B785,2013-12-20 17:55:00,
2013-12-20 12:56:00,54.6,34.2,30.00,West,260,2.0,2.0,46,0.00,,,0.00,186,WeatherCatV1.20B785,2013-12-20 17:56:00,
2013-12-20 12:58:00,54.7,34.3,30.00,WNW,295,0.0,4.0,46,0.00,,,0.00,193,WeatherCatV1.20B785,2013-12-20 17:58:00,
2013-12-20 13:00:00,54.8,34.4,30.00,West,264,1.0,2.0,46,0.00,,,0.00,188,WeatherCatV1.20B785,2013-12-20 18:00:00,
2013-12-20 13:01:00,54.8,34.4,30.00,WSW,258,2.0,2.0,46,0.00,,,0.00,186,WeatherCatV1.20B785,2013-12-20 18:01:00,
2013-12-20 13:02:00,54.9,34.5,30.00,West,267,3.0,3.0,46,0.00,,,0.00,186,WeatherCatV1.20B785,2013-12-20 18:02:00,
2013-12-20 13:03:00,54.9,34.0,30.00,WSW,246,2.0,3.0,45,0.00,,,0.00,190,WeatherCatV1.20B785,2013-12-20 18:03:00,
2013-12-20 13:04:00,54.9,33.4,30.00,WSW,251,2.0,3.0,44,0.00,,,0.00,192,WeatherCatV1.20B785,2013-12-20 18:04:00,
2013-12-20 13:05:00,55.0,32.9,30.00,WSW,248,1.0,3.0,43,0.00,,,0.00,190,WeatherCatV1.20B785,2013-12-20 18:05:00,
2013-12-20 13:06:00,55.0,32.9,30.00,WSW,256,1.0,2.0,43,0.00,,,0.00,190,WeatherCatV1.20B785,2013-12-20 18:06:00,
2013-12-20 13:07:00,55.0,32.9,30.00,WSW,256,0.0,2.0,43,0.00,,,0.00,192,WeatherCatV1.20B785,2013-12-20 18:07:00,
2013-12-20 13:09:00,55.1,33.6,30.00,West,271,3.0,3.0,44,0.00,,,0.00,199,WeatherCatV1.20B785,2013-12-20 18:09:00,
2013-12-20 13:10:00,55.2,34.2,30.00,WSW,246,1.0,3.0,45,0.00,,,0.00,199,WeatherCatV1.20B785,2013-12-20 18:10:00,
2013-12-20 13:12:00,55.3,33.2,30.00,WSW,244,3.0,3.0,43,0.00,,,0.00,209,WeatherCatV1.20B785,2013-12-20 18:12:00,
2013-12-20 13:14:00,55.3,33.2,30.00,WSW,239,1.0,3.0,43,0.00,,,0.00,220,WeatherCatV1.20B785,2013-12-20 18:14:00,
2013-12-20 13:16:00,55.4,33.8,30.00,WSW,239,0.0,1.0,44,0.00,,,0.00,232,WeatherCatV1.20B785,2013-12-20 18:16:00,
2013-12-20 13:17:00,55.4,33.3,30.00,WSW,240,0.0,2.0,43,0.00,,,0.00,227,WeatherCatV1.20B785,2013-12-20 18:17:00,
2013-12-20 13:18:00,55.4,33.3,30.00,WSW,240,1.0,2.0,43,0.00,,,0.00,216,WeatherCatV1.20B785,2013-12-20 18:18:00,
2013-12-20 13:19:00,55.5,33.9,30.00,WSW,244,1.0,2.0,44,0.00,,,0.00,206,WeatherCatV1.20B785,2013-12-20 18:19:00,
2013-12-20 13:21:00,55.6,34.0,30.00,SSW,206,0.0,1.0,44,0.00,,,0.00,190,WeatherCatV1.20B785,2013-12-20 18:21:00,
2013-12-20 13:23:00,55.6,34.0,29.99,SW,231,0.0,1.0,44,0.00,,,0.00,188,WeatherCatV1.20B785,2013-12-20 18:23:00,
2013-12-20 13:24:00,55.7,34.1,29.99,SW,235,2.0,2.0,44,0.00,,,0.00,190,WeatherCatV1.20B785,2013-12-20 18:24:00,
2013-12-20 13:25:00,55.7,33.5,29.99,SW,231,1.0,3.0,43,0.00,,,0.00,190,WeatherCatV1.20B785,2013-12-20 18:25:00,
2013-12-20 13:28:00,55.9,33.2,29.99,WSW,256,2.0,3.0,42,0.00,,,0.00,188,WeatherCatV1.20B785,2013-12-20 18:28:00,
2013-12-20 13:29:00,55.9,32.5,29.99,West,275,2.0,4.0,41,0.00,,,0.00,186,WeatherCatV1.20B785,2013-12-20 18:29:00,
2013-12-20 13:30:00,55.9,33.2,29.99,WNW,283,0.0,4.0,42,0.00,,,0.00,188,WeatherCatV1.20B785,2013-12-20 18:30:00,
2013-12-20 13:33:00,55.9,33.2,29.99,SW,231,0.0,2.0,42,0.00,,,0.00,169,WeatherCatV1.20B785,2013-12-20 18:33:00,
2013-12-20 13:34:00,56.0,33.2,29.99,SW,233,0.0,2.0,42,0.00,,,0.00,167,WeatherCatV1.20B785,2013-12-20 18:34:00,
2013-12-20 13:35:00,56.0,33.2,29.98,SW,233,0.0,2.0,42,0.00,,,0.00,165,WeatherCatV1.20B785,2013-12-20 18:35:00,
2013-12-20 13:36:00,56.0,33.2,29.98,SW,233,0.0,2.0,42,0.00,,,0.00,163,WeatherCatV1.20B785,2013-12-20 18:36:00,
2013-12-20 13:40:00,56.2,32.8,29.98,WSW,252,1.0,1.0,41,0.00,,,0.00,160,WeatherCatV1.20B785,2013-12-20 18:40:00,
2013-12-20 13:41:00,56.3,31.7,29.98,West,268,2.0,3.0,39,0.00,,,0.00,156,WeatherCatV1.20B785,2013-12-20 18:41:00,
2013-12-20 13:43:00,56.4,31.8,29.98,West,264,4.0,4.0,39,0.00,,,0.00,155,WeatherCatV1.20B785,2013-12-20 18:43:00,
2013-12-20 13:45:00,56.4,32.4,29.98,West,274,1.0,3.0,40,0.00,,,0.00,155,WeatherCatV1.20B785,2013-12-20 18:45:00,
2013-12-20 13:46:00,56.4,32.4,29.98,West,273,1.0,2.0,40,0.00,,,0.00,155,WeatherCatV1.20B785,2013-12-20 18:46:00,
2013-12-20 13:47:00,56.4,33.0,29.98,WNW,287,2.0,2.0,41,0.00,,,0.00,156,WeatherCatV1.20B785,2013-12-20 18:47:00,
2013-12-20 13:48:00,56.4,33.6,29.99,WNW,296,2.0,3.0,42,0.00,,,0.00,158,WeatherCatV1.20B785,2013-12-20 18:48:00,
2013-12-20 13:50:00,56.4,33.6,29.99,West,262,3.0,6.0,42,0.00,,,0.00,167,WeatherCatV1.20B785,2013-12-20 18:50:00,
2013-12-20 13:51:00,56.4,33.6,29.99,WSW,255,4.0,6.0,42,0.00,,,0.00,167,WeatherCatV1.20B785,2013-12-20 18:51:00,
2013-12-20 13:52:00,56.4,31.8,29.99,WSW,237,1.0,4.0,39,0.00,,,0.00,169,WeatherCatV1.20B785,2013-12-20 18:52:00,
2013-12-20 13:53:00,56.4,32.4,29.99,WSW,244,1.0,4.0,40,0.00,,,0.00,169,WeatherCatV1.20B785,2013-12-20 18:53:00,
2013-12-20 13:56:00,56.4,32.4,29.99,WSW,245,1.0,1.0,40,0.00,,,0.00,179,WeatherCatV1.20B785,2013-12-20 18:56:00,
2013-12-20 13:57:00,56.4,32.4,29.98,WSW,244,2.0,2.0,40,0.00,,,0.00,185,WeatherCatV1.20B785,2013-12-20 18:57:00,
2013-12-20 13:59:00,56.4,32.4,29.99,West,270,2.0,2.0,40,0.00,,,0.00,178,WeatherCatV1.20B785,2013-12-20 18:59:00,
2013-12-20 14:01:00,56.4,33.0,29.99,WSW,239,0.0,2.0,41,0.00,,,0.00,165,WeatherCatV1.20B785,2013-12-20 19:01:00,
2013-12-20 14:02:00,56.4,33.0,29.99,WSW,239,1.0,1.0,41,0.00,,,0.00,165,WeatherCatV1.20B785,2013-12-20 19:02:00,
2013-12-20 14:03:00,56.3,33.5,29.98,WSW,239,0.0,1.0,42,0.00,,,0.00,165,WeatherCatV1.20B785,2013-12-20 19:03:00,
2013-12-20 14:04:00,56.3,33.5,29.98,WSW,239,1.0,2.0,42,0.00,,,0.00,167,WeatherCatV1.20B785,2013-12-20 19:04:00,
2013-12-20 14:06:00,56.3,32.9,29.98,SW,225,0.0,1.0,41,0.00,,,0.00,162,WeatherCatV1.20B785,2013-12-20 19:06:00,
2013-12-20 14:07:00,56.3,32.9,29.98,SW,225,1.0,1.0,41,0.00,,,0.00,162,WeatherCatV1.20B785,2013-12-20 19:07:00,
2013-12-20 14:08:00,56.3,32.9,29.98,SW,225,0.0,1.0,41,0.00,,,0.00,160,WeatherCatV1.20B785,2013-12-20 19:08:00,
2013-12-20 14:10:00,56.4,33.0,29.98,SW,230,3.0,5.0,41,0.00,,,0.00,162,WeatherCatV1.20B785,2013-12-20 19:10:00,
2013-12-20 14:11:00,56.4,31.8,29.99,WSW,242,1.0,5.0,39,0.00,,,0.00,163,WeatherCatV1.20B785,2013-12-20 19:11:00,
2013-12-20 14:12:00,56.4,33.6,29.99,WSW,242,1.0,2.0,42,0.00,,,0.00,163,WeatherCatV1.20B785,2013-12-20 19:12:00,
2013-12-20 14:14:00,56.4,32.4,29.98,North,356,1.0,2.0,40,0.00,,,0.00,160,WeatherCatV1.20B785,2013-12-20 19:14:00,
2013-12-20 14:16:00,56.4,32.4,29.98,NW,308,1.0,2.0,40,0.00,,,0.00,156,WeatherCatV1.20B785,2013-12-20 19:16:00,
2013-12-20 14:17:00,56.5,32.5,29.98,WNW,282,1.0,2.0,40,0.00,,,0.00,153,WeatherCatV1.20B785,2013-12-20 19:17:00,
2013-12-20 14:18:00,56.5,31.8,29.98,WNW,282,0.0,0.0,39,0.00,,,0.00,144,WeatherCatV1.20B785,2013-12-20 19:18:00,
2013-12-20 14:20:00,56.6,32.6,29.98,WNW,282,0.0,0.0,40,0.00,,,0.00,142,WeatherCatV1.20B785,2013-12-20 19:20:00,
2013-12-20 14:21:00,56.6,32.6,29.98,WNW,282,0.0,0.0,40,0.00,,,0.00,139,WeatherCatV1.20B785,2013-12-20 19:21:00,
2013-12-20 14:22:00,56.6,32.6,29.98,WNW,282,0.0,0.0,40,0.00,,,0.00,135,WeatherCatV1.20B785,2013-12-20 19:22:00,
2013-12-20 14:23:00,56.7,32.0,29.97,WNW,282,0.0,0.0,39,0.00,,,0.00,132,WeatherCatV1.20B785,2013-12-20 19:23:00,
2013-12-20 14:24:00,56.7,32.0,29.97,WNW,282,0.0,0.0,39,0.00,,,0.00,135,WeatherCatV1.20B785,2013-12-20 19:24:00,
2013-12-20 14:25:00,56.8,32.7,29.97,WNW,282,2.0,2.0,40,0.00,,,0.00,135,WeatherCatV1.20B785,2013-12-20 19:25:00,
2013-12-20 14:27:00,56.8,32.7,29.97,West,266,1.0,2.0,40,0.00,,,0.00,148,WeatherCatV1.20B785,2013-12-20 19:27:00,
2013-12-20 14:28:00,56.9,32.2,29.97,West,278,0.0,2.0,39,0.00,,,0.00,149,WeatherCatV1.20B785,2013-12-20 19:28:00,
2013-12-20 14:29:00,56.9,31.6,29.97,West,280,2.0,2.0,38,0.00,,,0.00,149,WeatherCatV1.20B785,2013-12-20 19:29:00,
2013-12-20 14:30:00,56.9,32.2,29.97,West,275,1.0,2.0,39,0.00,,,0.00,148,WeatherCatV1.20B785,2013-12-20 19:30:00,
2013-12-20 14:32:00,57.1,32.4,29.97,West,275,0.0,1.0,39,0.00,,,0.00,141,WeatherCatV1.20B785,2013-12-20 19:32:00,
2013-12-20 14:33:00,57.1,32.4,29.97,West,275,0.0,1.0,39,0.00,,,0.00,137,WeatherCatV1.20B785,2013-12-20 19:33:00,
2013-12-20 14:34:00,57.1,32.4,29.97,West,275,0.0,1.0,39,0.00,,,0.00,135,WeatherCatV1.20B785,2013-12-20 19:34:00,
2013-12-20 14:35:00,57.1,33.0,29.97,West,275,0.0,0.0,40,0.00,,,0.00,135,WeatherCatV1.20B785,2013-12-20 19:35:00,
2013-12-20 14:37:00,57.2,33.1,29.97,West,275,0.0,0.0,40,0.00,,,0.00,141,WeatherCatV1.20B785,2013-12-20 19:37:00,
2013-12-20 14:38:00,57.2,32.5,29.97,West,275,0.0,0.0,39,0.00,,,0.00,142,WeatherCatV1.20B785,2013-12-20 19:38:00,
2013-12-20 14:39:00,57.2,32.5,29.97,West,275,0.0,0.0,39,0.00,,,0.00,144,WeatherCatV1.20B785,2013-12-20 19:39:00,
2013-12-20 14:40:00,57.2,33.1,29.97,West,275,0.0,1.0,40,0.00,,,0.00,141,WeatherCatV1.20B785,2013-12-20 19:40:00,
2013-12-20 14:43:00,57.2,33.1,29.97,West,272,0.0,2.0,40,0.00,,,0.00,134,WeatherCatV1.20B785,2013-12-20 19:43:00,
2013-12-20 14:44:00,57.2,33.1,29.97,West,272,0.0,2.0,40,0.00,,,0.00,132,WeatherCatV1.20B785,2013-12-20 19:44:00,
2013-12-20 14:45:00,57.2,33.1,29.97,West,272,0.0,0.0,40,0.00,,,0.00,130,WeatherCatV1.20B785,2013-12-20 19:45:00,
2013-12-20 14:46:00,57.2,32.5,29.97,West,272,0.0,0.0,39,0.00,,,0.00,132,WeatherCatV1.20B785,2013-12-20 19:46:00,
2013-12-20 14:48:00,57.2,32.5,29.97,West,271,0.0,1.0,39,0.00,,,0.00,132,WeatherCatV1.20B785,2013-12-20 19:48:00,
2013-12-20 14:49:00,57.2,33.1,29.97,West,271,0.0,1.0,40,0.00,,,0.00,130,WeatherCatV1.20B785,2013-12-20 19:49:00,
2013-12-20 14:50:00,57.2,33.1,29.97,West,271,0.0,0.0,40,0.00,,,0.00,130,WeatherCatV1.20B785,2013-12-20 19:50:00,
2013-12-20 14:52:00,57.2,33.7,29.97,West,271,0.0,1.0,41,0.00,,,0.00,128,WeatherCatV1.20B785,2013-12-20 19:52:00,
2013-12-20 14:54:00,57.2,33.7,29.97,West,271,0.0,0.0,41,0.00,,,0.00,125,WeatherCatV1.20B785,2013-12-20 19:54:00,
2013-12-20 14:55:00,57.2,33.7,29.97,West,271,0.0,0.0,41,0.00,,,0.00,120,WeatherCatV1.20B785,2013-12-20 19:55:00,
2013-12-20 14:58:00,57.2,33.1,29.97,West,271,0.0,0.0,40,0.00,,,0.00,125,WeatherCatV1.20B785,2013-12-20 19:58:00,
2013-12-20 14:59:00,57.2,33.1,29.97,West,271,0.0,0.0,40,0.00,,,0.00,132,WeatherCatV1.20B785,2013-12-20 19:59:00,
2013-12-20 15:00:00,57.2,33.1,29.97,West,271,0.0,0.0,40,0.00,,,0.00,130,WeatherCatV1.20B785,2013-12-20 20:00:00,
2013-12-20 15:01:00,57.2,33.7,29.97,West,271,0.0,0.0,41,0.00,,,0.00,130,WeatherCatV1.20B785,2013-12-20 20:01:00,
2013-12-20 15:03:00,57.2,33.7,29.96,West,271,1.0,1.0,41,0.00,,,0.00,130,WeatherCatV1.20B785,2013-12-20 20:03:00,
2013-12-20 15:04:00,57.2,33.7,29.97,West,271,0.0,1.0,41,0.00,,,0.00,130,WeatherCatV1.20B785,2013-12-20 20:04:00,
2013-12-20 15:06:00,57.1,33.6,29.96,West,271,0.0,0.0,41,0.00,,,0.00,130,WeatherCatV1.20B785,2013-12-20 20:06:00,
2013-12-20 15:09:00,57.2,36.0,29.97,West,270,0.0,2.0,45,0.00,,,0.00,128,WeatherCatV1.20B785,2013-12-20 20:09:00,
2013-12-20 15:11:00,57.1,35.4,29.97,West,269,0.0,2.0,44,0.00,,,0.00,125,WeatherCatV1.20B785,2013-12-20 20:11:00,
2013-12-20 15:12:00,57.1,35.4,29.97,West,269,0.0,1.0,44,0.00,,,0.00,125,WeatherCatV1.20B785,2013-12-20 20:12:00,
2013-12-20 15:14:00,57.0,34.7,29.97,WNW,283,0.0,1.0,43,0.00,,,0.00,120,WeatherCatV1.20B785,2013-12-20 20:14:00,
2013-12-20 15:16:00,57.0,34.1,29.97,West,269,0.0,1.0,42,0.00,,,0.00,116,WeatherCatV1.20B785,2013-12-20 20:16:00,
2013-12-20 15:17:00,56.9,34.0,29.97,West,269,0.0,0.0,42,0.00,,,0.00,113,WeatherCatV1.20B785,2013-12-20 20:17:00,
2013-12-20 15:20:00,56.9,34.0,29.97,West,269,0.0,1.0,42,0.00,,,0.00,98,WeatherCatV1.20B785,2013-12-20 20:20:00,
2013-12-20 15:21:00,56.8,34.5,29.97,West,269,0.0,1.0,43,0.00,,,0.00,97,WeatherCatV1.20B785,2013-12-20 20:21:00,
2013-12-20 15:22:00,56.8,35.1,29.97,West,269,0.0,0.0,44,0.00,,,0.00,95,WeatherCatV1.20B785,2013-12-20 20:22:00,
2013-12-20 15:23:00,56.8,35.1,29.97,NW,309,0.0,0.0,44,0.00,,,0.00,90,WeatherCatV1.20B785,2013-12-20 20:23:00,
2013-12-20 15:25:00,56.8,34.0,29.97,ENE,74,1.0,2.0,42,0.00,,,0.00,86,WeatherCatV1.20B785,2013-12-20 20:25:00,
2013-12-20 15:26:00,56.8,34.0,29.98,SW,217,1.0,2.0,42,0.00,,,0.00,79,WeatherCatV1.20B785,2013-12-20 20:26:00,
2013-12-20 15:27:00,56.8,34.5,29.98,WNW,288,2.0,2.0,43,0.00,,,0.00,76,WeatherCatV1.20B785,2013-12-20 20:27:00,
2013-12-20 15:28:00,56.8,34.5,29.98,WNW,287,1.0,2.0,43,0.00,,,0.00,63,WeatherCatV1.20B785,2013-12-20 20:28:00,
2013-12-20 15:29:00,56.7,34.5,29.98,WNW,287,1.0,2.0,43,0.00,,,0.00,63,WeatherCatV1.20B785,2013-12-20 20:29:00,
2013-12-20 15:30:00,56.7,34.5,29.98,WSW,258,0.0,2.0,43,0.00,,,0.00,63,WeatherCatV1.20B785,2013-12-20 20:30:00,
2013-12-20 15:31:00,56.6,33.8,29.98,WSW,258,0.0,0.0,42,0.00,,,0.00,58,WeatherCatV1.20B785,2013-12-20 20:31:00,
2013-12-20 15:32:00,56.6,33.8,29.98,WSW,258,0.0,0.0,42,0.00,,,0.00,54,WeatherCatV1.20B785,2013-12-20 20:32:00,
2013-12-20 15:33:00,56.5,33.7,29.98,WSW,258,0.0,0.0,42,0.00,,,0.00,53,WeatherCatV1.20B785,2013-12-20 20:33:00,
2013-12-20 15:34:00,56.5,33.1,29.98,WSW,258,0.0,0.0,41,0.00,,,0.00,51,WeatherCatV1.20B785,2013-12-20 20:34:00,
2013-12-20 15:35:00,56.5,33.1,29.98,WSW,258,0.0,0.0,41,0.00,,,0.00,49,WeatherCatV1.20B785,2013-12-20 20:35:00,
2013-12-20 15:37:00,56.4,33.0,29.98,WSW,258,0.0,0.0,41,0.00,,,0.00,47,WeatherCatV1.20B785,2013-12-20 20:37:00,
2013-12-20 15:38:00,56.4,33.0,29.98,SW,218,0.0,0.0,41,0.00,,,0.00,46,WeatherCatV1.20B785,2013-12-20 20:38:00,
2013-12-20 15:39:00,56.4,33.0,29.98,ESE,120,1.0,2.0,41,0.00,,,0.00,46,WeatherCatV1.20B785,2013-12-20 20:39:00,
2013-12-20 15:40:00,56.3,32.3,29.98,ESE,117,0.0,2.0,40,0.00,,,0.00,46,WeatherCatV1.20B785,2013-12-20 20:40:00,
2013-12-20 15:43:00,56.4,33.0,29.98,ESE,117,0.0,0.0,41,0.00,,,0.00,47,WeatherCatV1.20B785,2013-12-20 20:43:00,
2013-12-20 15:44:00,56.4,32.4,29.98,SW,219,1.0,1.0,40,0.00,,,0.00,47,WeatherCatV1.20B785,2013-12-20 20:44:00,
2013-12-20 15:46:00,56.4,33.6,29.98,WSW,256,1.0,2.0,42,0.00,,,0.00,49,WeatherCatV1.20B785,2013-12-20 20:46:00,
2013-12-20 15:47:00,56.4,34.2,29.98,West,262,0.0,2.0,43,0.00,,,0.00,49,WeatherCatV1.20B785,2013-12-20 20:47:00,
2013-12-20 15:48:00,56.3,33.5,29.98,West,262,0.0,1.0,42,0.00,,,0.00,47,WeatherCatV1.20B785,2013-12-20 20:48:00,
2013-12-20 15:49:00,56.3,33.5,29.98,West,262,0.0,0.0,42,0.00,,,0.00,47,WeatherCatV1.20B785,2013-12-20 20:49:00,
2013-12-20 15:50:00,56.2,33.4,29.98,West,262,0.0,0.0,42,0.00,,,0.00,46,WeatherCatV1.20B785,2013-12-20 20:50:00,
2013-12-20 15:51:00,56.2,33.4,29.98,West,262,0.0,0.0,42,0.00,,,0.00,44,WeatherCatV1.20B785,2013-12-20 20:51:00,
2013-12-20 15:54:00,56.0,33.8,29.98,West,262,0.0,0.0,43,0.00,,,0.00,40,WeatherCatV1.20B785,2013-12-20 20:54:00,
2013-12-20 15:55:00,55.9,33.7,29.98,West,262,0.0,1.0,43,0.00,,,0.00,37,WeatherCatV1.20B785,2013-12-20 20:55:00,
2013-12-20 15:56:00,55.8,34.2,29.98,West,262,0.0,1.0,44,0.00,,,0.00,37,WeatherCatV1.20B785,2013-12-20 20:56:00,
2013-12-20 15:59:00,55.7,34.1,29.98,West,262,0.0,0.0,44,0.00,,,0.00,37,WeatherCatV1.20B785,2013-12-20 20:59:00,
2013-12-20 16:00:00,55.5,33.4,29.98,West,262,0.0,0.0,43,0.00,,,0.00,39,WeatherCatV1.20B785,2013-12-20 21:00:00,
2013-12-20 16:01:00,55.4,33.3,29.98,West,262,0.0,0.0,43,0.00,,,0.00,39,WeatherCatV1.20B785,2013-12-20 21:01:00,
2013-12-20 16:02:00,55.4,33.3,29.98,West,262,0.0,0.0,43,0.00,,,0.00,42,WeatherCatV1.20B785,2013-12-20 21:02:00,
2013-12-20 16:04:00,55.2,33.7,29.97,West,262,0.0,0.0,44,0.00,,,0.00,47,WeatherCatV1.20B785,2013-12-20 21:04:00,
2013-12-20 16:05:00,55.1,33.0,29.97,West,262,0.0,0.0,43,0.00,,,0.00,47,WeatherCatV1.20B785,2013-12-20 21:05:00,
2013-12-20 16:06:00,55.1,33.6,29.98,West,262,0.0,0.0,44,0.00,,,0.00,47,WeatherCatV1.20B785,2013-12-20 21:06:00,
2013-12-20 16:07:00,55.0,33.5,29.98,West,262,0.0,0.0,44,0.00,,,0.00,49,WeatherCatV1.20B785,2013-12-20 21:07:00,
2013-12-20 16:09:00,54.8,34.4,29.98,West,262,0.0,0.0,46,0.00,,,0.00,42,WeatherCatV1.20B785,2013-12-20 21:09:00,
2013-12-20 16:10:00,54.7,33.8,29.98,West,262,0.0,1.0,45,0.00,,,0.00,44,WeatherCatV1.20B785,2013-12-20 21:10:00,
2013-12-20 16:11:00,54.7,33.8,29.98,West,262,0.0,1.0,45,0.00,,,0.00,44,WeatherCatV1.20B785,2013-12-20 21:11:00,
2013-12-20 16:12:00,54.5,33.6,29.98,West,262,0.0,1.0,45,0.00,,,0.00,42,WeatherCatV1.20B785,2013-12-20 21:12:00,
2013-12-20 16:14:00,54.2,33.3,29.98,West,262,0.0,0.0,45,0.00,,,0.00,39,WeatherCatV1.20B785,2013-12-20 21:14:00,
2013-12-20 16:15:00,54.2,33.3,29.98,West,262,0.0,0.0,45,0.00,,,0.00,39,WeatherCatV1.20B785,2013-12-20 21:15:00,
2013-12-20 16:16:00,54.1,33.2,29.98,West,262,0.0,0.0,45,0.00,,,0.00,37,WeatherCatV1.20B785,2013-12-20 21:16:00,
2013-12-20 16:17:00,54.1,33.2,29.98,West,262,0.0,0.0,45,0.00,,,0.00,39,WeatherCatV1.20B785,2013-12-20 21:17:00,
2013-12-20 16:20:00,54.0,33.1,29.98,West,262,0.0,0.0,45,0.00,,,0.00,35,WeatherCatV1.20B785,2013-12-20 21:20:00,
2013-12-20 16:21:00,53.9,33.6,29.98,West,262,0.0,0.0,46,0.00,,,0.00,32,WeatherCatV1.20B785,2013-12-20 21:21:00,
2013-12-20 16:22:00,53.9,33.6,29.98,West,262,0.0,0.0,46,0.00,,,0.00,28,WeatherCatV1.20B785,2013-12-20 21:22:00,
2013-12-20 16:23:00,53.8,33.5,29.98,West,262,0.0,0.0,46,0.00,,,0.00,26,WeatherCatV1.20B785,2013-12-20 21:23:00,
2013-12-20 16:25:00,53.7,33.4,29.99,West,262,0.0,1.0,46,0.00,,,0.00,26,WeatherCatV1.20B785,2013-12-20 21:25:00,
2013-12-20 16:26:00,53.6,33.3,29.99,West,262,0.0,1.0,46,0.00,,,0.00,26,WeatherCatV1.20B785,2013-12-20 21:26:00,
2013-12-20 16:27:00,53.6,33.3,29.99,West,262,0.0,1.0,46,0.00,,,0.00,26,WeatherCatV1.20B785,2013-12-20 21:27:00,
2013-12-20 16:28:00,53.5,33.2,29.99,West,262,0.0,0.0,46,0.00,,,0.00,28,WeatherCatV1.20B785,2013-12-20 21:28:00,
2013-12-20 16:30:00,53.4,33.1,29.98,West,262,0.0,0.0,46,0.00,,,0.00,25,WeatherCatV1.20B785,2013-12-20 21:30:00,
2013-12-20 16:31:00,53.3,33.0,29.98,West,262,0.0,0.0,46,0.00,,,0.00,21,WeatherCatV1.20B785,2013-12-20 21:31:00,
2013-12-20 16:32:00,53.3,33.0,29.98,West,262,0.0,0.0,46,0.00,,,0.00,19,WeatherCatV1.20B785,2013-12-20 21:32:00,
2013-12-20 16:33:00,53.3,33.0,29.98,West,262,0.0,0.0,46,0.00,,,0.00,18,WeatherCatV1.20B785,2013-12-20 21:33:00,
2013-12-20 16:35:00,53.1,33.4,29.98,West,262,0.0,1.0,47,0.00,,,0.00,16,WeatherCatV1.20B785,2013-12-20 21:35:00,
2013-12-20 16:36:00,53.1,33.4,29.98,West,262,0.0,1.0,47,0.00,,,0.00,16,WeatherCatV1.20B785,2013-12-20 21:36:00,
2013-12-20 16:39:00,53.0,33.3,29.98,West,262,0.0,0.0,47,0.00,,,0.00,12,WeatherCatV1.20B785,2013-12-20 21:39:00,
2013-12-20 16:41:00,52.8,33.7,29.98,West,262,1.0,1.0,48,0.00,,,0.00,11,WeatherCatV1.20B785,2013-12-20 21:41:00,
2013-12-20 16:42:00,52.8,33.7,29.99,West,262,0.0,1.0,48,0.00,,,0.00,9,WeatherCatV1.20B785,2013-12-20 21:42:00,
2013-12-20 16:44:00,52.6,33.0,29.99,West,262,0.0,0.0,47,0.00,,,0.00,7,WeatherCatV1.20B785,2013-12-20 21:44:00,
2013-12-20 16:45:00,52.6,33.0,29.99,West,262,0.0,0.0,47,0.00,,,0.00,7,WeatherCatV1.20B785,2013-12-20 21:45:00,
2013-12-20 16:46:00,52.5,32.9,29.99,West,262,1.0,1.0,47,0.00,,,0.00,5,WeatherCatV1.20B785,2013-12-20 21:46:00,
2013-12-20 16:47:00,52.5,32.9,29.98,West,262,0.0,1.0,47,0.00,,,0.00,5,WeatherCatV1.20B785,2013-12-20 21:47:00,
2013-12-20 16:48:00,52.5,33.4,29.98,West,262,0.0,1.0,48,0.00,,,0.00,5,WeatherCatV1.20B785,2013-12-20 21:48:00,
2013-12-20 16:49:00,52.5,33.4,29.98,West,262,0.0,0.0,48,0.00,,,0.00,0,WeatherCatV1.20B785,2013-12-20 21:49:00,
2013-12-20 16:50:00,52.5,33.4,29.98,West,262,1.0,1.0,48,0.00,,,0.00,0,WeatherCatV1.20B785,2013-12-20 21:50:00,
2013-12-20 16:53:00,52.4,33.3,29.98,West,262,0.0,1.0,48,0.00,,,0.00,0,WeatherCatV1.20B785,2013-12-20 21:53:00,
2013-12-20 16:54:00,52.3,33.2,29.99,West,262,0.0,1.0,48,0.00,,,0.00,0,WeatherCatV1.20B785,2013-12-20 21:54:00,
2013-12-20 16:55:00,52.3,33.2,29.99,West,262,0.0,1.0,48,0.00,,,0.00,0,WeatherCatV1.20B785,2013-12-20 21:55:00,
2013-12-20 16:58:00,52.2,33.6,29.99,West,262,0.0,1.0,49,0.00,,,0.00,0,WeatherCatV1.20B785,2013-12-20 21:58:00,
2013-12-20 16:59:00,52.1,33.5,29.99,West,262,1.0,1.0,49,0.00,,,0.00,0,WeatherCatV1.20B785,2013-12-20 21:59:00,
2013-12-20 17:00:00,52.1,33.0,29.99,West,262,0.0,1.0,48,0.00,,,0.00,0,WeatherCatV1.20B785,2013-12-20 22:00:00,
2013-12-20 17:01:00,52.1,33.0,29.99,West,262,0.0,1.0,48,0.00,,,0.00,0,WeatherCatV1.20B785,2013-12-20 22:01:00,
2013-12-20 17:03:00,52.1,33.0,29.99,West,262,0.0,0.0,48,0.00,,,0.00,0,WeatherCatV1.20B785,2013-12-20 22:03:00,
2013-12-20 17:04:00,52.0,32.9,29.99,West,262,0.0,0.0,48,0.00,,,0.00,0,WeatherCatV1.20B785,2013-12-20 22:04:00,
2013-12-20 17:05:00,52.0,32.9,29.99,West,262,0.0,0.0,48,0.00,,,0.00,0,WeatherCatV1.20B785,2013-12-20 22:05:00,
2013-12-20 17:06:00,52.0,32.9,29.98,West,262,0.0,0.0,48,0.00,,,0.00,0,WeatherCatV1.20B785,2013-12-20 22:06:00,
2013-12-20 17:08:00,51.9,32.3,29.98,West,262,0.0,0.0,47,0.00,,,0.00,0,WeatherCatV1.20B785,2013-12-20 22:08:00,
2013-12-20 17:09:00,51.9,32.3,29.98,West,262,0.0,0.0,47,0.00,,,0.00,0,WeatherCatV1.20B785,2013-12-20 22:09:00,
2013-12-20 17:10:00,51.9,32.3,29.98,West,262,0.0,0.0,47,0.00,,,0.00,0,WeatherCatV1.20B785,2013-12-20 22:10:00,
2013-12-20 17:11:00,51.9,32.8,29.98,West,262,0.0,0.0,48,0.00,,,0.00,0,WeatherCatV1.20B785,2013-12-20 22:11:00,
2013-12-20 17:12:00,51.9,32.8,29.98,West,262,0.0,1.0,48,0.00,,,0.00,0,WeatherCatV1.20B785,2013-12-20 22:12:00,
2013-12-20 17:14:00,51.8,32.7,29.98,West,262,1.0,1.0,48,0.00,,,0.00,0,WeatherCatV1.20B785,2013-12-20 22:14:00,
2013-12-20 17:15:00,51.8,33.2,29.98,West,262,0.0,1.0,49,0.00,,,0.00,0,WeatherCatV1.20B785,2013-12-20 22:15:00,
2013-12-20 17:16:00,51.8,32.7,29.98,West,262,0.0,0.0,48,0.00,,,0.00,0,WeatherCatV1.20B785,2013-12-20 22:16:00,
2013-12-20 17:17:00,51.7,33.2,29.99,West,262,1.0,1.0,49,0.00,,,0.00,0,WeatherCatV1.20B785,2013-12-20 22:17:00,
2013-12-20 17:18:00,51.7,33.7,29.99,West,262,0.0,1.0,50,0.00,,,0.00,0,WeatherCatV1.20B785,2013-12-20 22:18:00,
2013-12-20 17:20:00,51.6,33.1,29.99,West,262,0.0,1.0,49,0.00,,,0.00,0,WeatherCatV1.20B785,2013-12-20 22:20:00,
2013-12-20 17:21:00,51.5,33.0,29.99,West,262,1.0,1.0,49,0.00,,,0.00,0,WeatherCatV1.20B785,2013-12-20 22:21:00,
2013-12-20 17:22:00,51.4,33.4,29.99,West,262,0.0,0.0,50,0.00,,,0.00,0,WeatherCatV1.20B785,2013-12-20 22:22:00,
2013-12-20 17:23:00,51.4,32.9,29.99,West,262,1.0,1.0,49,0.00,,,0.00,0,WeatherCatV1.20B785,2013-12-20 22:23:00,
2013-12-20 17:25:00,51.3,33.3,29.98,West,262,0.0,1.0,50,0.00,,,0.00,0,WeatherCatV1.20B785,2013-12-20 22:25:00,
2013-12-20 17:26:00,51.3,33.3,29.98,West,262,0.0,1.0,50,0.00,,,0.00,0,WeatherCatV1.20B785,2013-12-20 22:26:00,
2013-12-20 17:27:00,51.2,33.2,29.98,West,262,0.0,0.0,50,0.00,,,0.00,0,WeatherCatV1.20B785,2013-12-20 22:27:00,
2013-12-20 17:28:00,51.2,33.2,29.98,West,262,0.0,0.0,50,0.00,,,0.00,0,WeatherCatV1.20B785,2013-12-20 22:28:00,
2013-12-20 17:30:00,51.1,32.6,29.98,West,262,0.0,0.0,49,0.00,,,0.00,0,WeatherCatV1.20B785,2013-12-20 22:30:00,
2013-12-20 17:31:00,51.1,32.6,29.98,West,262,0.0,0.0,49,0.00,,,0.00,0,WeatherCatV1.20B785,2013-12-20 22:31:00,
2013-12-20 17:32:00,51.0,33.0,29.98,West,262,1.0,1.0,50,0.00,,,0.00,0,WeatherCatV1.20B785,2013-12-20 22:32:00,
2013-12-20 17:33:00,51.0,33.5,29.98,West,262,0.0,1.0,51,0.00,,,0.00,0,WeatherCatV1.20B785,2013-12-20 22:33:00,
2013-12-20 17:36:00,50.9,32.4,29.98,West,262,0.0,1.0,49,0.00,,,0.00,0,WeatherCatV1.20B785,2013-12-20 22:36:00,
2013-12-20 17:37:00,50.9,32.9,29.98,West,262,0.0,1.0,50,0.00,,,0.00,0,WeatherCatV1.20B785,2013-12-20 22:37:00,
2013-12-20 17:38:00,50.9,33.4,29.98,West,262,0.0,1.0,51,0.00,,,0.00,0,WeatherCatV1.20B785,2013-12-20 22:38:00,
2013-12-20 17:39:00,50.8,32.8,29.98,South,187,0.0,3.0,50,0.00,,,0.00,0,WeatherCatV1.20B785,2013-12-20 22:39:00,
2013-12-20 17:41:00,50.8,33.3,29.98,WSW,255,1.0,2.0,51,0.00,,,0.00,0,WeatherCatV1.20B785,2013-12-20 22:41:00,
2013-12-20 17:42:00,50.8,33.8,29.98,WSW,255,0.0,2.0,52,0.00,,,0.00,0,WeatherCatV1.20B785,2013-12-20 22:42:00,
2013-12-20 17:43:00,50.7,33.2,29.98,WSW,255,0.0,1.0,51,0.00,,,0.00,0,WeatherCatV1.20B785,2013-12-20 22:43:00,
2013-12-20 17:44:00,50.7,33.2,29.98,WSW,255,2.0,2.0,51,0.00,,,0.00,0,WeatherCatV1.20B785,2013-12-20 22:44:00,
2013-12-20 17:46:00,50.6,33.2,29.98,West,272,1.0,2.0,51,0.00,,,0.00,0,WeatherCatV1.20B785,2013-12-20 22:46:00,
2013-12-20 17:47:00,50.6,33.2,29.99,West,272,1.0,2.0,51,0.00,,,0.00,0,WeatherCatV1.20B785,2013-12-20 22:47:00,
2013-12-20 17:48:00,50.6,33.6,29.98,West,272,1.0,2.0,52,0.00,,,0.00,0,WeatherCatV1.20B785,2013-12-20 22:48:00,
2013-12-20 17:50:00,50.5,33.5,29.98,West,272,0.0,2.0,52,0.00,,,0.00,0,WeatherCatV1.20B785,2013-12-20 22:50:00,
2013-12-20 17:52:00,50.3,33.3,29.99,West,272,1.0,2.0,52,0.00,,,0.00,0,WeatherCatV1.20B785,2013-12-20 22:52:00,
2013-12-20 17:53:00,50.2,33.3,29.99,West,273,1.0,1.0,52,0.00,,,0.00,0,WeatherCatV1.20B785,2013-12-20 22:53:00,
2013-12-20 17:55:00,50.1,33.2,29.99,West,273,0.0,2.0,52,0.00,,,0.00,0,WeatherCatV1.20B785,2013-12-20 22:55:00,
2013-12-20 17:57:00,50.1,33.2,29.99,West,272,1.0,1.0,52,0.00,,,0.00,0,WeatherCatV1.20B785,2013-12-20 22:57:00,
2013-12-20 17:59:00,49.9,33.5,29.99,West,273,0.0,1.0,53,0.00,,,0.00,0,WeatherCatV1.20B785,2013-12-20 22:59:00,
2013-12-20 18:00:00,49.9,33.5,29.99,West,272,0.0,1.0,53,0.00,,,0.00,0,WeatherCatV1.20B785,2013-12-20 23:00:00,
2013-12-20 18:01:00,49.9,33.0,29.99,West,273,0.0,1.0,52,0.00,,,0.00,0,WeatherCatV1.20B785,2013-12-20 23:01:00,
2013-12-20 18:02:00,49.8,32.9,29.99,West,272,0.0,1.0,52,0.00,,,0.00,0,WeatherCatV1.20B785,2013-12-20 23:02:00,
2013-12-20 18:03:00,49.8,32.9,29.99,West,272,0.0,1.0,52,0.00,,,0.00,0,WeatherCatV1.20B785,2013-12-20 23:03:00,
2013-12-20 18:05:00,49.7,32.8,29.99,West,271,0.0,1.0,52,0.00,,,0.00,0,WeatherCatV1.20B785,2013-12-20 23:05:00,
2013-12-20 18:06:00,49.7,33.3,29.99,West,272,0.0,1.0,53,0.00,,,0.00,0,WeatherCatV1.20B785,2013-12-20 23:06:00,
2013-12-20 18:07:00,49.7,32.8,29.99,West,272,0.0,1.0,52,0.00,,,0.00,0,WeatherCatV1.20B785,2013-12-20 23:07:00,
2013-12-20 18:08:00,49.7,32.8,29.99,West,272,0.0,1.0,52,0.00,,,0.00,0,WeatherCatV1.20B785,2013-12-20 23:08:00,
2013-12-20 18:09:00,49.7,32.8,29.99,West,272,0.0,1.0,52,0.00,,,0.00,0,WeatherCatV1.20B785,2013-12-20 23:09:00,
2013-12-20 18:11:00,49.6,33.2,29.99,West,273,0.0,0.0,53,0.00,,,0.00,0,WeatherCatV1.20B785,2013-12-20 23:11:00,
2013-12-20 18:12:00,49.6,33.2,29.99,West,272,0.0,0.0,53,0.00,,,0.00,0,WeatherCatV1.20B785,2013-12-20 23:12:00,
2013-12-20 18:13:00,49.6,32.7,29.99,West,273,0.0,0.0,52,0.00,,,0.00,0,WeatherCatV1.20B785,2013-12-20 23:13:00,
2013-12-20 18:14:00,49.6,33.2,29.99,West,273,0.0,0.0,53,0.00,,,0.00,0,WeatherCatV1.20B785,2013-12-20 23:14:00,
2013-12-20 18:18:00,49.5,33.5,29.99,West,272,0.0,0.0,54,0.00,,,0.00,0,WeatherCatV1.20B785,2013-12-20 23:18:00,
2013-12-20 18:19:00,49.5,33.5,29.99,West,273,1.0,2.0,54,0.00,,,0.00,0,WeatherCatV1.20B785,2013-12-20 23:19:00,
2013-12-20 18:23:00,49.4,33.0,29.99,West,273,0.0,1.0,53,0.00,,,0.00,0,WeatherCatV1.20B785,2013-12-20 23:23:00,
2013-12-20 18:24:00,49.4,33.0,30.00,West,272,0.0,1.0,53,0.00,,,0.00,0,WeatherCatV1.20B785,2013-12-20 23:24:00,
2013-12-20 18:28:00,49.3,33.4,29.99,West,272,0.0,1.0,54,0.00,,,0.00,0,WeatherCatV1.20B785,2013-12-20 23:28:00,
2013-12-20 18:29:00,49.3,33.4,30.00,West,273,0.0,1.0,54,0.00,,,0.00,0,WeatherCatV1.20B785,2013-12-20 23:29:00,
2013-12-20 18:30:00,49.3,33.4,30.00,West,273,0.0,1.0,54,0.00,,,0.00,0,WeatherCatV1.20B785,2013-12-20 23:30:00,
2013-12-20 18:33:00,49.2,33.3,30.00,West,273,1.0,1.0,54,0.00,,,0.00,0,WeatherCatV1.20B785,2013-12-20 23:33:00,
2013-12-20 18:34:00,49.2,33.3,30.00,West,272,0.0,1.0,54,0.00,,,0.00,0,WeatherCatV1.20B785,2013-12-20 23:34:00,
2013-12-20 18:38:00,49.3,33.8,30.00,West,272,2.0,2.0,55,0.00,,,0.00,0,WeatherCatV1.20B785,2013-12-20 23:38:00,
2013-12-20 18:39:00,49.3,33.8,30.00,West,273,0.0,2.0,55,0.00,,,0.00,0,WeatherCatV1.20B785,2013-12-20 23:39:00,
2013-12-20 18:42:00,49.3,33.4,30.00,West,272,1.0,2.0,54,0.00,,,0.00,0,WeatherCatV1.20B785,2013-12-20 23:42:00,
2013-12-20 18:43:00,49.3,33.4,30.00,West,273,1.0,2.0,54,0.00,,,0.00,0,WeatherCatV1.20B785,2013-12-20 23:43:00,
2013-12-20 18:44:00,49.3,33.8,30.00,West,272,1.0,2.0,55,0.00,,,0.00,0,WeatherCatV1.20B785,2013-12-20 23:44:00,
2013-12-20 18:45:00,49.3,33.8,30.00,West,272,0.0,1.0,55,0.00,,,0.00,0,WeatherCatV1.20B785,2013-12-20 23:45:00,
2013-12-20 18:47:00,49.3,33.8,30.00,WNW,285,0.0,1.0,55,0.00,,,0.00,0,WeatherCatV1.20B785,2013-12-20 23:47:00,
2013-12-20 18:49:00,49.3,33.4,30.00,WNW,282,0.0,2.0,54,0.00,,,0.00,0,WeatherCatV1.20B785,2013-12-20 23:49:00,
2013-12-20 18:50:00,49.4,33.5,30.00,WNW,282,1.0,2.0,54,0.00,,,0.00,0,WeatherCatV1.20B785,2013-12-20 23:50:00,
2013-12-20 18:53:00,49.4,33.5,30.00,WNW,282,0.0,1.0,54,0.00,,,0.00,0,WeatherCatV1.20B785,2013-12-20 23:53:00,
2013-12-20 18:54:00,49.4,33.5,30.00,WNW,282,0.0,0.0,54,0.00,,,0.00,0,WeatherCatV1.20B785,2013-12-20 23:54:00,
2013-12-20 18:55:00,49.4,33.5,30.00,WNW,282,0.0,0.0,54,0.00,,,0.00,0,WeatherCatV1.20B785,2013-12-20 23:55:00,
2013-12-20 18:59:00,49.6,33.2,30.00,WNW,282,0.0,0.0,53,0.00,,,0.00,0,WeatherCatV1.20B785,2013-12-20 23:59:00,
2013-12-20 19:00:00,49.6,33.2,30.00,WNW,282,0.0,0.0,53,0.00,,,0.00,0,WeatherCatV1.20B785,2013-12-21 00:00:00,
2013-12-20 19:04:00,49.5,33.5,30.00,WNW,282,0.0,1.0,54,0.00,,,0.00,0,WeatherCatV1.20B785,2013-12-21 00:04:00,
2013-12-20 19:05:00,49.5,34.0,30.00,WNW,282,0.0,1.0,55,0.00,,,0.00,0,WeatherCatV1.20B785,2013-12-21 00:05:00,
2013-12-20 19:06:00,49.5,33.5,30.00,WNW,282,1.0,1.0,54,0.00,,,0.00,0,WeatherCatV1.20B785,2013-12-21 00:06:00,
2013-12-20 19:10:00,49.4,33.9,30.00,WNW,282,0.0,2.0,55,0.00,,,0.00,0,WeatherCatV1.20B785,2013-12-21 00:10:00,
2013-12-20 19:11:00,49.3,33.8,30.00,WNW,282,0.0,0.0,55,0.00,,,0.00,0,WeatherCatV1.20B785,2013-12-21 00:11:00,
2013-12-20 19:12:00,49.3,33.4,30.00,WNW,282,0.0,2.0,54,0.00,,,0.00,0,WeatherCatV1.20B785,2013-12-21 00:12:00,
2013-12-20 19:15:00,49.1,34.5,30.00,WNW,282,0.0,1.0,57,0.00,,,0.00,0,WeatherCatV1.20B785,2013-12-21 00:15:00,
2013-12-20 19:16:00,49.0,34.4,30.00,WNW,282,1.0,1.0,57,0.00,,,0.00,0,WeatherCatV1.20B785,2013-12-21 00:16:00,
2013-12-20 19:18:00,48.8,34.2,30.00,WNW,282,0.0,1.0,57,0.00,,,0.00,0,WeatherCatV1.20B785,2013-12-21 00:18:00,
2013-12-20 19:20:00,48.7,34.2,30.00,WNW,282,0.0,1.0,57,0.00,,,0.00,0,WeatherCatV1.20B785,2013-12-21 00:20:00,
2013-12-20 19:21:00,48.6,34.1,30.00,WNW,282,0.0,1.0,57,0.00,,,0.00,0,WeatherCatV1.20B785,2013-12-21 00:21:00,
2013-12-20 19:22:00,48.6,34.1,30.00,WNW,282,0.0,1.0,57,0.00,,,0.00,0,WeatherCatV1.20B785,2013-12-21 00:22:00,
2013-12-20 19:23:00,48.6,34.1,30.00,WNW,282,0.0,1.0,57,0.00,,,0.00,0,WeatherCatV1.20B785,2013-12-21 00:23:00,
2013-12-20 19:25:00,48.5,34.0,30.00,WNW,282,0.0,0.0,57,0.00,,,0.00,0,WeatherCatV1.20B785,2013-12-21 00:25:00,
2013-12-20 19:26:00,48.5,34.0,30.00,WNW,282,1.0,1.0,57,0.00,,,0.00,0,WeatherCatV1.20B785,2013-12-21 00:26:00,
2013-12-20 19:27:00,48.5,34.0,30.00,SW,232,2.0,2.0,57,0.00,,,0.00,0,WeatherCatV1.20B785,2013-12-21 00:27:00,
2013-12-20 19:28:00,48.5,34.4,30.00,SW,231,0.0,2.0,58,0.00,,,0.00,0,WeatherCatV1.20B785,2013-12-21 00:28:00,
2013-12-20 19:31:00,48.4,34.3,30.00,SW,231,0.0,1.0,58,0.00,,,0.00,0,WeatherCatV1.20B785,2013-12-21 00:31:00,
2013-12-20 19:32:00,48.4,33.9,30.00,SW,231,0.0,0.0,57,0.00,,,0.00,0,WeatherCatV1.20B785,2013-12-21 00:32:00,
2013-12-20 19:33:00,48.4,34.3,30.00,SW,231,0.0,0.0,58,0.00,,,0.00,0,WeatherCatV1.20B785,2013-12-21 00:33:00,
2013-12-20 19:34:00,48.3,33.8,30.00,SW,231,0.0,0.0,57,0.00,,,0.00,0,WeatherCatV1.20B785,2013-12-21 00:34:00,
2013-12-20 19:36:00,48.4,34.3,30.00,SW,231,0.0,1.0,58,0.00,,,0.00,0,WeatherCatV1.20B785,2013-12-21 00:36:00,
2013-12-20 19:37:00,48.4,33.9,30.00,SW,231,0.0,1.0,57,0.00,,,0.00,0,WeatherCatV1.20B785,2013-12-21 00:37:00,
2013-12-20 19:38:00,48.5,34.4,30.00,SW,231,0.0,1.0,58,0.00,,,0.00,0,WeatherCatV1.20B785,2013-12-21 00:38:00,
2013-12-20 19:39:00,48.5,34.0,30.00,SW,231,0.0,0.0,57,0.00,,,0.00,0,WeatherCatV1.20B785,2013-12-21 00:39:00,
2013-12-20 19:41:00,48.6,34.5,30.00,SW,231,0.0,1.0,58,0.00,,,0.00,0,WeatherCatV1.20B785,2013-12-21 00:41:00,
2013-12-20 19:42:00,48.6,34.5,30.00,SW,231,0.0,1.0,58,0.00,,,0.00,0,WeatherCatV1.20B785,2013-12-21 00:42:00,
2013-12-20 19:43:00,48.6,34.1,30.00,SW,231,0.0,1.0,57,0.00,,,0.00,0,WeatherCatV1.20B785,2013-12-21 00:43:00,
2013-12-20 19:44:00,48.6,34.1,30.00,SW,231,0.0,0.0,57,0.00,,,0.00,0,WeatherCatV1.20B785,2013-12-21 00:44:00,
2013-12-20 19:47:00,48.6,34.1,30.00,SW,231,1.0,1.0,57,0.00,,,0.00,0,WeatherCatV1.20B785,2013-12-21 00:47:00,
2013-12-20 19:49:00,48.7,34.2,30.00,SW,231,0.0,1.0,57,0.00,,,0.00,0,WeatherCatV1.20B785,2013-12-21 00:49:00,
2013-12-20 19:50:00,48.7,34.2,30.00,SW,231,0.0,0.0,57,0.00,,,0.00,0,WeatherCatV1.20B785,2013-12-21 00:50:00,
2013-12-20 19:52:00,48.9,33.9,30.00,SW,231,0.0,0.0,56,0.00,,,0.00,0,WeatherCatV1.20B785,2013-12-21 00:52:00,
2013-12-20 19:54:00,49.1,34.1,30.00,SW,231,0.0,0.0,56,0.00,,,0.00,0,WeatherCatV1.20B785,2013-12-21 00:54:00,
2013-12-20 19:55:00,49.2,34.2,30.00,SW,231,0.0,0.0,56,0.00,,,0.00,0,WeatherCatV1.20B785,2013-12-21 00:55:00,
2013-12-20 19:56:00,49.2,34.2,30.00,SW,231,0.0,0.0,56,0.00,,,0.00,0,WeatherCatV1.20B785,2013-12-21 00:56:00,
2013-12-20 19:57:00,49.4,34.4,30.00,SW,231,0.0,0.0,56,0.00,,,0.00,0,WeatherCatV1.20B785,2013-12-21 00:57:00,
2013-12-20 19:59:00,49.5,34.0,30.00,SW,231,0.0,0.0,55,0.00,,,0.00,0,WeatherCatV1.20B785,2013-12-21 00:59:00,
2013-12-20 20:00:00,49.5,34.5,30.00,SW,231,0.0,0.0,56,0.00,,,0.00,0,WeatherCatV1.20B785,2013-12-21 01:00:00,
2013-12-20 20:01:00,49.5,34.5,30.00,SW,231,0.0,0.0,56,0.00,,,0.00,0,WeatherCatV1.20B785,2013-12-21 01:01:00,
2013-12-20 20:02:00,49.6,34.1,30.00,SW,231,0.0,0.0,55,0.00,,,0.00,0,WeatherCatV1.20B785,2013-12-21 01:02:00,
2013-12-20 20:04:00,49.5,34.5,30.00,SW,231,0.0,0.0,56,0.00,,,0.00,0,WeatherCatV1.20B785,2013-12-21 01:04:00,
2013-12-20 20:06:00,49.5,34.5,30.00,SW,231,0.0,0.0,56,0.00,,,0.00,0,WeatherCatV1.20B785,2013-12-21 01:06:00,
2013-12-20 20:07:00,49.5,34.5,30.00,SW,231,0.0,0.0,56,0.00,,,0.00,0,WeatherCatV1.20B785,2013-12-21 01:07:00,
2013-12-20 20:09:00,49.4,35.2,30.01,SW,231,0.0,1.0,58,0.00,,,0.00,0,WeatherCatV1.20B785,2013-12-21 01:09:00,
2013-12-20 20:11:00,49.3,35.2,30.01,SW,231,0.0,1.0,58,0.00,,,0.00,0,WeatherCatV1.20B785,2013-12-21 01:11:00,
2013-12-20 20:12:00,49.2,35.1,30.01,SW,231,0.0,1.0,58,0.00,,,0.00,0,WeatherCatV1.20B785,2013-12-21 01:12:00,
2013-12-20 20:13:00,49.2,35.1,30.01,SW,231,0.0,1.0,58,0.00,,,0.00,0,WeatherCatV1.20B785,2013-12-21 01:13:00,
2013-12-20 20:16:00,49.1,35.0,30.01,SW,231,0.0,0.0,58,0.00,,,0.00,0,WeatherCatV1.20B785,2013-12-21 01:16:00,
2013-12-20 20:17:00,49.0,34.4,30.00,SW,231,0.0,0.0,57,0.00,,,0.00,0,WeatherCatV1.20B785,2013-12-21 01:17:00,
2013-12-20 20:18:00,49.0,34.9,30.00,SW,231,1.0,1.0,58,0.00,,,0.00,0,WeatherCatV1.20B785,2013-12-21 01:18:00,
2013-12-20 20:21:00,49.1,35.0,30.01,SW,231,0.0,0.0,58,0.00,,,0.00,0,WeatherCatV1.20B785,2013-12-21 01:21:00,
2013-12-20 20:22:00,49.1,35.0,30.00,SW,231,0.0,0.0,58,0.00,,,0.00,0,WeatherCatV1.20B785,2013-12-21 01:22:00,
2013-12-20 20:23:00,49.1,35.0,30.00,SW,231,0.0,0.0,58,0.00,,,0.00,0,WeatherCatV1.20B785,2013-12-21 01:23:00,
2013-12-20 20:24:00,49.2,35.5,30.00,SW,231,0.0,0.0,59,0.00,,,0.00,0,WeatherCatV1.20B785,2013-12-21 01:24:00,
2013-12-20 20:26:00,49.2,35.1,30.00,SW,231,0.0,0.0,58,0.00,,,0.00,0,WeatherCatV1.20B785,2013-12-21 01:26:00,
2013-12-20 20:27:00,49.3,36.4,30.00,SW,231,0.0,0.0,61,0.00,,,0.00,0,WeatherCatV1.20B785,2013-12-21 01:27:00,
2013-12-20 20:28:00,49.3,37.2,30.00,SW,231,0.0,0.0,63,0.00,,,0.00,0,WeatherCatV1.20B785,2013-12-21 01:28:00,
2013-12-20 20:29:00,49.2,36.7,30.00,SW,231,0.0,0.0,62,0.00,,,0.00,0,WeatherCatV1.20B785,2013-12-21 01:29:00,
2013-12-20 20:32:00,49.0,37.8,30.00,SW,231,0.0,1.0,65,0.00,,,0.00,0,WeatherCatV1.20B785,2013-12-21 01:32:00,
2013-12-20 20:33:00,48.9,37.7,30.00,SW,231,0.0,0.0,65,0.00,,,0.00,0,WeatherCatV1.20B785,2013-12-21 01:33:00,
2013-12-20 20:35:00,48.5,36.9,30.00,SW,231,0.0,0.0,64,0.00,,,0.00,0,WeatherCatV1.20B785,2013-12-21 01:35:00,
2013-12-20 20:37:00,48.3,36.7,30.00,SW,231,0.0,0.0,64,0.00,,,0.00,0,WeatherCatV1.20B785,2013-12-21 01:37:00,
2013-12-20 20:38:00,48.3,36.7,30.00,SW,231,0.0,1.0,64,0.00,,,0.00,0,WeatherCatV1.20B785,2013-12-21 01:38:00,
2013-12-20 20:41:00,47.9,35.9,30.00,SW,231,0.0,0.0,63,0.00,,,0.00,0,WeatherCatV1.20B785,2013-12-21 01:41:00,
2013-12-20 20:42:00,47.8,35.4,30.00,SW,231,0.0,1.0,62,0.00,,,0.00,0,WeatherCatV1.20B785,2013-12-21 01:42:00,
2013-12-20 20:43:00,47.7,35.7,30.00,SW,231,1.0,1.0,63,0.00,,,0.00,0,WeatherCatV1.20B785,2013-12-21 01:43:00,
2013-12-20 20:44:00,47.7,35.3,30.00,SW,231,0.0,1.0,62,0.00,,,0.00,0,WeatherCatV1.20B785,2013-12-21 01:44:00,
2013-12-20 20:46:00,47.6,35.2,30.00,SW,231,0.0,0.0,62,0.00,,,0.00,0,WeatherCatV1.20B785,2013-12-21 01:46:00,
2013-12-20 20:47:00,47.5,35.1,30.00,SW,231,0.0,0.0,62,0.00,,,0.00,0,WeatherCatV1.20B785,2013-12-21 01:47:00,
2013-12-20 20:49:00,47.5,35.1,30.00,SW,231,0.0,0.0,62,0.00,,,0.00,0,WeatherCatV1.20B785,2013-12-21 01:49:00,
2013-12-20 20:50:00,47.6,35.2,29.99,SW,231,0.0,0.0,62,0.00,,,0.00,0,WeatherCatV1.20B785,2013-12-21 01:50:00,
2013-12-20 20:52:00,47.6,35.6,29.99,SW,231,0.0,0.0,63,0.00,,,0.00,0,WeatherCatV1.20B785,2013-12-21 01:52:00,
2013-12-20 20:53:00,47.6,36.0,29.99,SW,231,0.0,0.0,64,0.00,,,0.00,0,WeatherCatV1.20B785,2013-12-21 01:53:00,
2013-12-20 20:54:00,47.7,36.5,30.00,SW,231,0.0,0.0,65,0.00,,,0.00,0,WeatherCatV1.20B785,2013-12-21 01:54:00,
2013-12-20 20:55:00,47.6,36.0,30.00,SW,231,0.0,0.0,64,0.00,,,0.00,0,WeatherCatV1.20B785,2013-12-21 01:55:00,
2013-12-20 20:56:00,47.6,36.0,30.00,SW,231,0.0,1.0,64,0.00,,,0.00,0,WeatherCatV1.20B785,2013-12-21 01:56:00,
2013-12-20 20:57:00,47.6,36.0,30.00,SW,231,0.0,1.0,64,0.00,,,0.00,0,WeatherCatV1.20B785,2013-12-21 01:57:00,
2013-12-20 20:58:00,47.6,36.0,30.00,SW,231,0.0,1.0,64,0.00,,,0.00,0,WeatherCatV1.20B785,2013-12-21 01:58:00,
2013-12-20 21:00:00,47.5,35.9,30.00,SW,231,0.0,1.0,64,0.00,,,0.00,0,WeatherCatV1.20B785,2013-12-21 02:00:00,
2013-12-20 21:01:00,47.4,35.8,30.00,SW,231,1.0,1.0,64,0.00,,,0.00,0,WeatherCatV1.20B785,2013-12-21 02:01:00,
2013-12-20 21:03:00,47.3,35.8,30.00,SW,231,0.0,1.0,64,0.00,,,0.00,0,WeatherCatV1.20B785,2013-12-21 02:03:00,
2013-12-20 21:05:00,47.2,35.3,30.00,SW,231,0.0,0.0,63,0.00,,,0.00,0,WeatherCatV1.20B785,2013-12-21 02:05:00,
2013-12-20 21:06:00,47.2,35.3,30.00,SW,231,0.0,1.0,63,0.00,,,0.00,0,WeatherCatV1.20B785,2013-12-21 02:06:00,
2013-12-20 21:07:00,47.2,35.7,30.00,SW,231,0.0,1.0,64,0.00,,,0.00,0,WeatherCatV1.20B785,2013-12-21 02:07:00,
2013-12-20 21:08:00,47.2,35.7,30.00,SW,231,0.0,1.0,64,0.00,,,0.00,0,WeatherCatV1.20B785,2013-12-21 02:08:00,
2013-12-20 21:10:00,47.1,35.2,30.00,SW,231,0.0,0.0,63,0.00,,,0.00,0,WeatherCatV1.20B785,2013-12-21 02:10:00,
2013-12-20 21:11:00,47.1,35.2,30.00,SW,231,0.0,0.0,63,0.00,,,0.00,0,WeatherCatV1.20B785,2013-12-21 02:11:00,
2013-12-20 21:12:00,47.2,35.3,30.00,SW,231,0.0,0.0,63,0.00,,,0.00,0,WeatherCatV1.20B785,2013-12-21 02:12:00,
2013-12-20 21:13:00,47.2,36.0,30.00,SW,231,0.0,1.0,65,0.00,,,0.00,0,WeatherCatV1.20B785,2013-12-21 02:13:00,
2013-12-20 21:14:00,47.2,36.0,30.00,SW,231,0.0,1.0,65,0.00,,,0.00,0,WeatherCatV1.20B785,2013-12-21 02:14:00,
2013-12-20 21:15:00,47.2,37.2,30.00,SW,231,0.0,0.0,68,0.00,,,0.00,0,WeatherCatV1.20B785,2013-12-21 02:15:00,
2013-12-20 21:16:00,47.1,37.1,30.00,SW,231,0.0,0.0,68,0.00,,,0.00,0,WeatherCatV1.20B785,2013-12-21 02:16:00,
2013-12-20 21:17:00,47.1,36.7,30.00,SW,231,0.0,0.0,67,0.00,,,0.00,0,WeatherCatV1.20B785,2013-12-21 02:17:00,
2013-12-20 21:19:00,46.9,36.9,30.00,SW,231,0.0,0.0,68,0.00,,,0.00,0,WeatherCatV1.20B785,2013-12-21 02:19:00,
2013-12-20 21:20:00,46.8,36.4,30.00,SW,231,0.0,0.0,67,0.00,,,0.00,0,WeatherCatV1.20B785,2013-12-21 02:20:00,
2013-12-20 21:22:00,46.7,36.0,30.00,SW,231,0.0,0.0,66,0.00,,,0.00,0,WeatherCatV1.20B785,2013-12-21 02:22:00,
2013-12-20 21:23:00,46.6,36.2,30.00,SW,231,0.0,0.0,67,0.00,,,0.00,0,WeatherCatV1.20B785,2013-12-21 02:23:00,
2013-12-20 21:24:00,46.6,36.2,30.00,SW,231,0.0,0.0,67,0.00,,,0.00,0,WeatherCatV1.20B785,2013-12-21 02:24:00,
2013-12-20 21:26:00,46.5,36.1,30.00,SW,231,0.0,0.0,67,0.00,,,0.00,0,WeatherCatV1.20B785,2013-12-21 02:26:00,
2013-12-20 21:27:00,46.4,36.0,30.00,SW,231,0.0,1.0,67,0.00,,,0.00,0,WeatherCatV1.20B785,2013-12-21 02:27:00,
2013-12-20 21:28:00,46.4,36.0,30.00,SW,231,0.0,1.0,67,0.00,,,0.00,0,WeatherCatV1.20B785,2013-12-21 02:28:00,
2013-12-20 21:29:00,46.3,36.0,30.01,SW,231,0.0,0.0,67,0.00,,,0.00,0,WeatherCatV1.20B785,2013-12-21 02:29:00,
2013-12-20 21:30:00,46.3,36.0,30.01,SW,231,0.0,0.0,67,0.00,,,0.00,0,WeatherCatV1.20B785,2013-12-21 02:30:00,
2013-12-20 21:31:00,46.2,36.2,30.00,SW,231,0.0,0.0,68,0.00,,,0.00,0,WeatherCatV1.20B785,2013-12-21 02:31:00,
2013-12-20 21:32:00,46.2,35.1,30.00,SW,231,0.0,0.0,65,0.00,,,0.00,0,WeatherCatV1.20B785,2013-12-21 02:32:00,
2013-12-20 21:33:00,46.2,35.1,30.00,SW,231,0.0,0.0,65,0.00,,,0.00,0,WeatherCatV1.20B785,2013-12-21 02:33:00,
2013-12-20 21:35:00,46.2,35.5,30.00,SW,231,1.0,1.0,66,0.00,,,0.00,0,WeatherCatV1.20B785,2013-12-21 02:35:00,
2013-12-20 21:36:00,46.3,36.0,30.00,SW,231,0.0,1.0,67,0.00,,,0.00,0,WeatherCatV1.20B785,2013-12-21 02:36:00,
2013-12-20 21:37:00,46.3,36.0,30.00,SW,231,1.0,1.0,67,0.00,,,0.00,0,WeatherCatV1.20B785,2013-12-21 02:37:00,
2013-12-20 21:38:00,46.3,35.6,30.00,SW,233,0.0,1.0,66,0.00,,,0.00,0,WeatherCatV1.20B785,2013-12-21 02:38:00,
2013-12-20 21:40:00,46.3,36.0,30.01,SW,233,1.0,1.0,67,0.00,,,0.00,0,WeatherCatV1.20B785,2013-12-21 02:40:00,
2013-12-20 21:41:00,46.3,36.0,30.01,SW,233,0.0,2.0,67,0.00,,,0.00,0,WeatherCatV1.20B785,2013-12-21 02:41:00,
2013-12-20 21:42:00,46.3,36.0,30.01,SW,233,0.0,2.0,67,0.00,,,0.00,0,WeatherCatV1.20B785,2013-12-21 02:42:00,
2013-12-20 21:43:00,46.2,35.9,30.01,SW,233,0.0,1.0,67,0.00,,,0.00,0,WeatherCatV1.20B785,2013-12-21 02:43:00,
2013-12-20 21:45:00,46.2,35.5,30.01,SW,233,0.0,0.0,66,0.00,,,0.00,0,WeatherCatV1.20B785,2013-12-21 02:45:00,
2013-12-20 21:46:00,46.2,35.1,30.01,SW,233,0.0,0.0,65,0.00,,,0.00,0,WeatherCatV1.20B785,2013-12-21 02:46:00,
2013-12-20 21:48:00,46.3,34.8,30.01,SW,233,0.0,0.0,64,0.00,,,0.00,0,WeatherCatV1.20B785,2013-12-21 02:48:00,
2013-12-20 21:49:00,46.3,34.8,30.01,SW,233,0.0,0.0,64,0.00,,,0.00,0,WeatherCatV1.20B785,2013-12-21 02:49:00,
2013-12-20 21:51:00,46.4,35.3,30.00,SW,233,0.0,0.0,65,0.00,,,0.00,0,WeatherCatV1.20B785,2013-12-21 02:51:00,
2013-12-20 21:53:00,46.5,35.4,30.00,SW,233,0.0,1.0,65,0.00,,,0.00,0,WeatherCatV1.20B785,2013-12-21 02:53:00,
2013-12-20 21:54:00,46.5,35.8,30.00,SW,233,0.0,1.0,66,0.00,,,0.00,0,WeatherCatV1.20B785,2013-12-21 02:54:00,
2013-12-20 21:56:00,46.5,35.4,30.00,SW,233,0.0,0.0,65,0.00,,,0.00,0,WeatherCatV1.20B785,2013-12-21 02:56:00,
2013-12-20 21:57:00,46.5,35.4,30.00,SW,233,0.0,0.0,65,0.00,,,0.00,0,WeatherCatV1.20B785,2013-12-21 02:57:00,
2013-12-20 21:58:00,46.5,35.4,30.00,SW,233,0.0,0.0,65,0.00,,,0.00,0,WeatherCatV1.20B785,2013-12-21 02:58:00,
2013-12-20 21:59:00,46.5,35.8,30.00,SW,232,0.0,1.0,66,0.00,,,0.00,0,WeatherCatV1.20B785,2013-12-21 02:59:00,
2013-12-20 22:01:00,46.1,36.1,30.00,West,265,1.0,2.0,68,0.00,,,0.00,0,WeatherCatV1.20B785,2013-12-21 03:01:00,
2013-12-20 22:02:00,46.0,36.4,30.00,West,266,1.0,2.0,69,0.00,,,0.00,0,WeatherCatV1.20B785,2013-12-21 03:02:00,
2013-12-20 22:03:00,45.8,36.2,30.00,West,275,1.0,2.0,69,0.00,,,0.00,0,WeatherCatV1.20B785,2013-12-21 03:03:00,
2013-12-20 22:04:00,45.6,36.0,30.00,West,275,0.0,2.0,69,0.00,,,0.00,0,WeatherCatV1.20B785,2013-12-21 03:04:00,
2013-12-20 22:06:00,45.5,35.9,30.00,West,275,0.0,1.0,69,0.00,,,0.00,0,WeatherCatV1.20B785,2013-12-21 03:06:00,
2013-12-20 22:07:00,45.4,36.2,30.00,West,275,1.0,1.0,70,0.00,,,0.00,0,WeatherCatV1.20B785,2013-12-21 03:07:00,
2013-12-20 22:08:00,45.3,36.5,30.00,West,275,0.0,1.0,71,0.00,,,0.00,0,WeatherCatV1.20B785,2013-12-21 03:08:00,
2013-12-20 22:10:00,45.2,36.4,30.00,West,275,0.0,1.0,71,0.00,,,0.00,0,WeatherCatV1.20B785,2013-12-21 03:10:00,
2013-12-20 22:13:00,45.2,34.9,30.00,West,275,0.0,0.0,67,0.00,,,0.00,0,WeatherCatV1.20B785,2013-12-21 03:13:00,
2013-12-20 22:16:00,45.4,35.8,30.00,West,275,0.0,1.0,69,0.00,,,0.00,0,WeatherCatV1.20B785,2013-12-21 03:16:00,
2013-12-20 22:18:00,45.4,35.8,30.00,West,275,0.0,0.0,69,0.00,,,0.00,0,WeatherCatV1.20B785,2013-12-21 03:18:00,
2013-12-20 22:19:00,45.4,35.8,30.00,West,275,0.0,0.0,69,0.00,,,0.00,0,WeatherCatV1.20B785,2013-12-21 03:19:00,
2013-12-20 22:22:00,45.4,35.8,30.00,West,275,1.0,2.0,69,0.00,,,0.00,0,WeatherCatV1.20B785,2013-12-21 03:22:00,
2013-12-20 22:24:00,45.5,35.6,30.00,West,275,0.0,0.0,68,0.00,,,0.00,0,WeatherCatV1.20B785,2013-12-21 03:24:00,
2013-12-20 22:25:00,45.5,35.6,30.00,West,275,0.0,0.0,68,0.00,,,0.00,0,WeatherCatV1.20B785,2013-12-21 03:25:00,
2013-12-20 22:28:00,45.8,35.5,30.00,West,275,0.0,1.0,67,0.00,,,0.00,0,WeatherCatV1.20B785,2013-12-21 03:28:00,
2013-12-20 22:29:00,45.9,35.2,30.00,West,275,0.0,1.0,66,0.00,,,0.00,0,WeatherCatV1.20B785,2013-12-21 03:29:00,
2013-12-20 22:30:00,46.0,35.3,30.00,West,275,0.0,1.0,66,0.00,,,0.00,0,WeatherCatV1.20B785,2013-12-21 03:30:00,
2013-12-20 22:33:00,46.4,35.7,30.00,West,275,0.0,1.0,66,0.00,,,0.00,0,WeatherCatV1.20B785,2013-12-21 03:33:00,
2013-12-20 22:34:00,46.5,35.4,30.00,West,275,0.0,0.0,65,0.00,,,0.00,0,WeatherCatV1.20B785,2013-12-21 03:34:00,
2013-12-20 22:35:00,46.5,35.4,30.00,West,275,0.0,0.0,65,0.00,,,0.00,0,WeatherCatV1.20B785,2013-12-21 03:35:00,
2013-12-20 22:36:00,46.6,35.5,30.00,West,275,0.0,0.0,65,0.00,,,0.00,0,WeatherCatV1.20B785,2013-12-21 03:36:00,
2013-12-20 22:40:00,46.6,35.5,30.00,West,275,0.0,0.0,65,0.00,,,0.00,0,WeatherCatV1.20B785,2013-12-21 03:40:00,
2013-12-20 22:41:00,46.6,35.9,30.01,West,275,0.0,0.0,66,0.00,,,0.00,0,WeatherCatV1.20B785,2013-12-21 03:41:00,
2013-12-20 22:45:00,46.4,36.0,30.01,West,275,0.0,1.0,67,0.00,,,0.00,0,WeatherCatV1.20B785,2013-12-21 03:45:00,
2013-12-20 22:46:00,46.4,36.0,30.01,West,275,0.0,1.0,67,0.00,,,0.00,0,WeatherCatV1.20B785,2013-12-21 03:46:00,
2013-12-20 22:47:00,46.3,36.0,30.01,West,275,0.0,0.0,67,0.00,,,0.00,0,WeatherCatV1.20B785,2013-12-21 03:47:00,
2013-12-20 22:51:00,46.1,35.0,30.01,West,275,0.0,0.0,65,0.00,,,0.00,0,WeatherCatV1.20B785,2013-12-21 03:51:00,
2013-12-20 22:52:00,46.1,34.6,30.01,West,275,0.0,0.0,64,0.00,,,0.00,0,WeatherCatV1.20B785,2013-12-21 03:52:00,
2013-12-20 22:56:00,46.0,35.3,30.01,West,275,0.0,0.0,66,0.00,,,0.00,0,WeatherCatV1.20B785,2013-12-21 03:56:00,
2013-12-20 22:57:00,46.0,35.3,30.01,West,275,0.0,0.0,66,0.00,,,0.00,0,WeatherCatV1.20B785,2013-12-21 03:57:00,
2013-12-20 22:59:00,46.0,34.9,30.00,West,275,0.0,1.0,65,0.00,,,0.00,0,WeatherCatV1.20B785,2013-12-21 03:59:00,
2013-12-20 23:01:00,46.1,35.4,30.00,West,275,0.0,0.0,66,0.00,,,0.00,0,WeatherCatV1.20B785,2013-12-21 04:01:00,
2013-12-20 23:02:00,46.1,35.4,30.00,West,275,0.0,0.0,66,0.00,,,0.00,0,WeatherCatV1.20B785,2013-12-21 04:02:00,
2013-12-20 23:04:00,46.1,35.4,30.00,West,275,0.0,0.0,66,0.00,,,0.00,0,WeatherCatV1.20B785,2013-12-21 04:04:00,
2013-12-20 23:06:00,46.0,35.7,30.00,West,275,0.0,0.0,67,0.00,,,0.00,0,WeatherCatV1.20B785,2013-12-21 04:06:00,
2013-12-20 23:07:00,46.0,35.7,30.00,West,275,0.0,0.0,67,0.00,,,0.00,0,WeatherCatV1.20B785,2013-12-21 04:07:00,
2013-12-20 23:09:00,45.8,35.5,30.00,West,275,0.0,1.0,67,0.00,,,0.00,0,WeatherCatV1.20B785,2013-12-21 04:09:00,
2013-12-20 23:11:00,45.7,35.4,30.00,West,275,0.0,0.0,67,0.00,,,0.00,0,WeatherCatV1.20B785,2013-12-21 04:11:00,
2013-12-20 23:12:00,45.7,35.4,30.00,West,275,0.0,0.0,67,0.00,,,0.00,0,WeatherCatV1.20B785,2013-12-21 04:12:00,
2013-12-20 23:13:00,45.6,34.9,29.99,West,275,0.0,0.0,66,0.00,,,0.00,0,WeatherCatV1.20B785,2013-12-21 04:13:00,
2013-12-20 23:14:00,45.6,35.3,29.99,West,275,0.0,1.0,67,0.00,,,0.00,0,WeatherCatV1.20B785,2013-12-21 04:14:00,
2013-12-20 23:15:00,45.5,35.2,29.99,West,275,0.0,1.0,67,0.00,,,0.00,0,WeatherCatV1.20B785,2013-12-21 04:15:00,
2013-12-20 23:17:00,45.5,34.8,29.99,West,275,0.0,0.0,66,0.00,,,0.00,0,WeatherCatV1.20B785,2013-12-21 04:17:00,
2013-12-20 23:18:00,45.4,34.7,29.99,West,275,0.0,0.0,66,0.00,,,0.00,0,WeatherCatV1.20B785,2013-12-21 04:18:00,
2013-12-20 23:20:00,45.3,35.4,29.99,West,275,1.0,1.0,68,0.00,,,0.00,0,WeatherCatV1.20B785,2013-12-21 04:20:00,
2013-12-20 23:22:00,45.2,35.3,30.00,West,275,0.0,1.0,68,0.00,,,0.00,0,WeatherCatV1.20B785,2013-12-21 04:22:00,
2013-12-20 23:23:00,45.1,35.2,30.00,West,275,1.0,1.0,68,0.00,,,0.00,0,WeatherCatV1.20B785,2013-12-21 04:23:00,
2013-12-20 23:24:00,45.1,35.2,30.00,West,275,1.0,1.0,68,0.00,,,0.00,0,WeatherCatV1.20B785,2013-12-21 04:24:00,
2013-12-20 23:25:00,45.0,35.5,30.00,West,275,0.0,1.0,69,0.00,,,0.00,0,WeatherCatV1.20B785,2013-12-21 04:25:00,
2013-12-20 23:26:00,44.9,35.4,30.00,West,275,1.0,1.0,69,0.00,,,0.00,0,WeatherCatV1.20B785,2013-12-21 04:26:00,
2013-12-20 23:28:00,44.8,35.6,30.00,West,275,0.0,2.0,70,0.00,,,0.00,0,WeatherCatV1.20B785,2013-12-21 04:28:00,
2013-12-20 23:29:00,44.7,35.5,30.00,West,275,0.0,0.0,70,0.00,,,0.00,0,WeatherCatV1.20B785,2013-12-21 04:29:00,
2013-12-20 23:30:00,44.6,35.4,30.00,West,275,0.0,1.0,70,0.00,,,0.00,0,WeatherCatV1.20B785,2013-12-21 04:30:00,
2013-12-20 23:32:00,44.5,35.3,30.00,West,275,0.0,1.0,70,0.00,,,0.00,0,WeatherCatV1.20B785,2013-12-21 04:32:00,
2013-12-20 23:33:00,44.5,35.3,30.00,West,275,0.0,0.0,70,0.00,,,0.00,0,WeatherCatV1.20B785,2013-12-21 04:33:00,
2013-12-20 23:34:00,44.5,35.3,30.00,West,275,0.0,0.0,70,0.00,,,0.00,0,WeatherCatV1.20B785,2013-12-21 04:34:00,
2013-12-20 23:35:00,44.3,35.1,30.00,West,275,0.0,0.0,70,0.00,,,0.00,0,WeatherCatV1.20B785,2013-12-21 04:35:00,
2013-12-20 23:36:00,44.3,35.1,30.00,West,275,0.0,0.0,70,0.00,,,0.00,0,WeatherCatV1.20B785,2013-12-21 04:36:00,
2013-12-20 23:38:00,44.3,35.1,30.00,West,275,0.0,0.0,70,0.00,,,0.00,0,WeatherCatV1.20B785,2013-12-21 04:38:00,
2013-12-20 23:39:00,44.3,35.1,30.00,West,275,0.0,0.0,70,0.00,,,0.00,0,WeatherCatV1.20B785,2013-12-21 04:39:00,
2013-12-20 23:40:00,44.3,35.5,30.00,West,275,0.0,0.0,71,0.00,,,0.00,0,WeatherCatV1.20B785,2013-12-21 04:40:00,
2013-12-20 23:42:00,44.2,35.8,29.99,West,275,0.0,0.0,72,0.00,,,0.00,0,WeatherCatV1.20B785,2013-12-21 04:42:00,
2013-12-20 23:43:00,44.2,35.8,29.99,West,275,0.0,0.0,72,0.00,,,0.00,0,WeatherCatV1.20B785,2013-12-21 04:43:00,
2013-12-20 23:44:00,44.2,35.8,29.99,West,275,0.0,0.0,72,0.00,,,0.00,0,WeatherCatV1.20B785,2013-12-21 04:44:00,
2013-12-20 23:45:00,44.2,35.4,29.99,West,275,0.0,0.0,71,0.00,,,0.00,0,WeatherCatV1.20B785,2013-12-21 04:45:00,
2013-12-20 23:46:00,44.2,35.4,29.99,West,275,0.0,0.0,71,0.00,,,0.00,0,WeatherCatV1.20B785,2013-12-21 04:46:00,
2013-12-20 23:49:00,44.2,35.8,29.99,West,275,0.0,1.0,72,0.00,,,0.00,0,WeatherCatV1.20B785,2013-12-21 04:49:00,
2013-12-20 23:50:00,44.1,35.7,29.99,West,275,0.0,0.0,72,0.00,,,0.00,0,WeatherCatV1.20B785,2013-12-21 04:50:00,
2013-12-20 23:54:00,44.0,35.6,29.99,West,275,1.0,1.0,72,0.00,,,0.00,0,WeatherCatV1.20B785,2013-12-21 04:54:00,
2013-12-20 23:55:00,44.0,35.6,29.99,West,275,0.0,1.0,72,0.00,,,0.00,0,WeatherCatV1.20B785,2013-12-21 04:55:00,
2013-12-20 23:59:00,44.1,35.7,29.99,West,275,2.0,2.0,72,0.00,,,0.00,0,WeatherCatV1.20B785,2013-12-21 04:59:00,